EW4266 Weather Reports


time (UTC)temp
C
wind
direction
speed
KPH
gust
KPH
rain 1hr
cm
rain 24hr
cm
rain mn
cm
humidity
%
barometer
mb
20260905220300 20 32 6.4 14.5 0.00 0.00 0.00 78 1013.1
20260905220215 20 34 4.8 14.5 0.00 0.00 0.00 78 1013.1
20260905220025 20 344 6.4 14.5 0.00 0.00 0.00 78 1013.1
20260905215939 20 5 6.4 14.5 0.00 0.00 0.00 78 1013.1
20260905215810 20 30 3.2 14.5 0.00 0.00 0.00 79 1013.0
20260905215731 20 355 3.2 14.5 0.00 0.00 0.00 79 1013.0
20260905215536 20 330 6.4 14.5 0.00 0.00 0.00 78 1013.0
20260905215458 20 360 4.8 14.5 0.00 0.00 0.00 78 1013.0
20260905215323 20 20 4.8 12.9 0.00 0.00 0.00 78 1012.9
20260905215241 20 20 4.8 12.9 0.00 0.00 0.00 79 1013.0
20260905215111 20 338 4.8 12.9 0.00 0.00 0.00 79 1012.9
20260905215033 20 15 4.8 12.9 0.00 0.00 0.00 78 1012.9
20260905214904 20 348 3.2 9.7 0.00 0.00 0.00 78 1012.9
20260905214819 20 348 4.8 9.7 0.00 0.00 0.00 78 1013.0
20260905214628 20 318 6.4 9.7 0.00 0.00 0.00 78 1012.9
20260905214523 20 336 6.4 9.7 0.00 0.00 0.00 78 1012.9
20260905214446 20 355 6.4 9.7 0.00 0.00 0.00 78 1012.9
20260905214330 20 327 6.4 9.7 0.00 0.00 0.00 78 1012.9
20260905214253 20 309 6.4 9.7 0.00 0.00 0.00 77 1012.9
20260905214212 20 333 4.8 9.7 0.00 0.00 0.00 79 1012.9
20260905214112 20 317 4.8 9.7 0.00 0.00 0.00 78 1012.9
20260905214035 20 329 4.8 12.9 0.00 0.00 0.00 78 1012.9
20260905213837 20 338 4.8 16.1 0.00 0.00 0.00 77 1012.9
20260905213757 20 300 4.8 16.1 0.00 0.00 0.00 78 1012.8
20260905213643 20 321 4.8 16.1 0.00 0.00 0.00 78 1012.8
20260905213605 20 343 6.4 16.1 0.00 0.00 0.00 78 1012.8
20260905213415 20 341 6.4 16.1 0.00 0.00 0.00 77 1012.8
20260905213328 20 350 6.4 16.1 0.00 0.00 0.00 77 1012.8
20260905213159 20 329 11.3 16.1 0.00 0.00 0.00 77 1012.7
20260905213037 20 355 9.7 17.7 0.00 0.00 0.00 77 1012.8
20260905212940 20 13 8.0 17.7 0.00 0.00 0.00 76 1012.7
20260905212856 20 360 8.0 17.7 0.00 0.00 0.00 76 1012.8
20260905212817 20 345 8.0 17.7 0.00 0.00 0.00 76 1012.8
20260905212718 20 348 8.0 17.7 0.00 0.00 0.00 76 1012.7
20260905212632 20 315 8.0 17.7 0.00 0.00 0.00 77 1012.7
20260905212443 20 316 9.7 17.7 0.00 0.00 0.00 76 1012.7
20260905212340 20 338 8.0 17.7 0.00 0.00 0.00 77 1012.7
20260905212224 20 311 6.4 12.9 0.00 0.00 0.00 76 1012.7
20260905212129 20 13 8.0 12.9 0.00 0.00 0.00 77 1012.8
20260905212053 20 346 8.0 14.5 0.00 0.00 0.00 76 1012.8
20260905211958 20 329 8.0 14.5 0.00 0.00 0.00 76 1012.7
20260905211838 20 344 6.4 14.5 0.00 0.00 0.00 76 1012.7
20260905211752 20 319 4.8 17.7 0.00 0.00 0.00 77 1012.7
20260905211654 20 327 6.4 17.7 0.00 0.00 0.00 77 1012.7
20260905211614 20 348 8.0 17.7 0.00 0.00 0.00 76 1012.7
20260905211458 20 344 8.0 17.7 0.00 0.00 0.00 76 1012.6
20260905211338 20 338 8.0 17.7 0.00 0.00 0.00 75 1012.7
20260905211253 20 331 9.7 17.7 0.00 0.00 0.00 75 1012.7
20260905211218 21 323 9.7 17.7 0.00 0.00 0.00 75 1012.6
20260905211023 21 337 11.3 17.7 0.00 0.00 0.00 74 1012.6
20260905210925 21 344 9.7 16.1 0.00 0.00 0.00 75 1012.6
20260905210828 21 345 9.7 16.1 0.00 0.00 0.00 75 1012.6
20260905210748 21 355 9.7 16.1 0.00 0.00 0.00 75 1012.6
20260905210722 21 355 9.7 16.1 0.00 0.00 0.00 74 1012.6
20260905210624 21 350 9.7 16.1 0.00 0.00 0.00 75 1012.6
20260905210525 21 344 9.7 16.1 0.00 0.00 0.00 75 1012.6
20260905210327 21 350 8.0 16.1 0.00 0.00 0.00 75 1012.6
20260905210249 21 348 9.7 16.1 0.00 0.00 0.00 74 1012.6
20260905210031 21 355 11.3 16.1 0.00 0.00 0.00 74 1012.5
20260905205932 21 330 11.3 16.1 0.00 0.00 0.00 74 1012.5
20260905205733 21 5 6.4 14.5 0.00 0.00 0.00 75 1012.5
20260905205656 21 341 6.4 14.5 0.00 0.00 0.00 75 1012.5
20260905205601 21 321 6.4 14.5 0.00 0.00 0.00 75 1012.5
20260905205523 21 338 6.4 14.5 0.00 0.00 0.00 74 1012.5
20260905205327 21 325 6.4 14.5 0.00 0.00 0.00 75 1012.4
20260905205228 21 10 6.4 14.5 0.00 0.00 0.00 75 1012.4
20260905205131 21 324 8.0 14.5 0.00 0.00 0.00 74 1012.4
20260905205036 21 319 8.0 14.5 0.00 0.00 0.00 73 1012.4
20260905204959 21 313 8.0 14.5 0.00 0.00 0.00 73 1012.4
20260905204823 21 332 6.4 14.5 0.00 0.00 0.00 75 1012.4
20260905204738 21 325 6.4 16.1 0.00 0.00 0.00 75 1012.4
20260905204659 21 309 6.4 16.1 0.00 0.00 0.00 74 1012.4
20260905204619 21 333 8.0 16.1 0.00 0.00 0.00 74 1012.4
20260905204534 21 329 8.0 16.1 0.00 0.00 0.00 75 1012.4
20260905204404 21 329 8.0 16.1 0.00 0.00 0.00 74 1012.4
20260905204326 21 325 6.4 16.1 0.00 0.00 0.00 75 1012.4
20260905204132 21 324 6.4 16.1 0.00 0.00 0.00 75 1012.4
20260905204057 21 331 6.4 16.1 0.00 0.00 0.00 76 1012.4
20260905204001 21 327 11.3 16.1 0.00 0.00 0.00 75 1012.4
20260905203840 21 316 9.7 16.1 0.00 0.00 0.00 74 1012.4
20260905203723 21 329 8.0 16.1 0.00 0.00 0.00 74 1012.4
20260905203645 21 325 9.7 16.1 0.00 0.00 0.00 74 1012.4
20260905203517 21 317 9.7 16.1 0.00 0.00 0.00 74 1012.4
20260905203433 21 321 8.0 16.1 0.00 0.00 0.00 76 1012.4
20260905203244 21 344 9.7 14.5 0.00 0.00 0.00 76 1012.4
20260905203138 21 337 11.3 14.5 0.00 0.00 0.00 75 1012.4
20260905203025 21 341 6.4 14.5 0.00 0.00 0.00 74 1012.4
20260905202948 21 311 6.4 12.9 0.00 0.00 0.00 75 1012.4
20260905202817 21 315 6.4 12.9 0.00 0.00 0.00 74 1012.4
20260905202732 21 319 6.4 16.1 0.00 0.00 0.00 75 1012.4
20260905202602 21 313 4.8 16.1 0.00 0.00 0.00 76 1012.4
20260905202524 21 333 4.8 16.1 0.00 0.00 0.00 75 1012.4
20260905202328 21 347 6.4 16.1 0.00 0.00 0.00 75 1012.4
20260905202250 21 329 6.4 17.7 0.00 0.00 0.00 77 1012.4
20260905202134 21 338 6.4 19.3 0.00 0.00 0.00 76 1012.4
20260905202056 21 342 8.0 19.3 0.00 0.00 0.00 76 1012.4
20260905202023 21 335 9.7 19.3 0.00 0.00 0.00 75 1012.4
20260905201906 21 349 9.7 19.3 0.00 0.00 0.00 73 1012.4
20260905201827 21 5 9.7 19.3 0.00 0.00 0.00 75 1012.4
20260905201708 21 338 8.0 19.3 0.00 0.00 0.00 76 1012.3
20260905201623 21 38 6.4 19.3 0.00 0.00 0.00 76 1012.3
20260905201452 21 355 9.7 19.3 0.00 0.00 0.00 76 1012.4
20260905201415 21 5 11.3 19.3 0.00 0.00 0.00 75 1012.4
20260905201240 21 355 9.7 19.3 0.00 0.00 0.00 76 1012.4
20260905201140 21 339 9.7 19.3 0.00 0.00 0.00 75 1012.4
20260905201025 21 331 12.9 19.3 0.00 0.00 0.00 74 1012.3
20260905200945 21 346 12.9 19.3 0.00 0.00 0.00 74 1012.4
20260905200912 21 315 11.3 20.9 0.00 0.00 0.00 76 1012.4
20260905200817 21 315 11.3 20.9 0.00 0.00 0.00 75 1012.4
20260905200738 21 325 12.9 20.9 0.00 0.00 0.00 75 1012.4
20260905200610 21 337 14.5 20.9 0.00 0.00 0.00 74 1012.3
20260905200525 21 350 14.5 20.9 0.00 0.00 0.00 74 1012.3
20260905200334 21 329 11.3 20.9 0.00 0.00 0.00 75 1012.3
20260905200249 21 331 9.7 20.9 0.00 0.00 0.00 74 1012.3
20260905200119 21 355 9.7 20.9 0.00 0.00 0.00 73 1012.3
20260905200041 22 24 9.7 20.9 0.00 0.00 0.00 73 1012.3
20260905195843 22 350 8.0 20.9 0.00 0.00 0.00 73 1012.3
20260905195804 22 325 8.0 20.9 0.00 0.00 0.00 73 1012.3
20260905195711 22 355 9.7 20.9 0.00 0.00 0.00 73 1012.3
20260905195632 22 346 11.3 20.9 0.00 0.00 0.00 73 1012.3
20260905195445 22 339 14.5 20.9 0.00 0.00 0.00 76 1012.3
20260905195337 22 335 14.5 20.9 0.00 0.00 0.00 76 1012.3
20260905195240 22 343 14.5 20.9 0.00 0.00 0.00 75 1012.3
20260905195201 22 331 16.1 20.9 0.00 0.00 0.00 75 1012.4
20260905195102 21 5 14.5 20.9 0.00 0.00 0.00 75 1012.4
20260905194909 21 318 12.9 20.9 0.00 0.00 0.00 75 1012.4
20260905194723 21 324 12.9 20.9 0.00 0.00 0.00 75 1012.3
20260905194631 21 326 11.3 20.9 0.00 0.00 0.00 77 1012.4
20260905194553 21 331 9.7 20.9 0.00 0.00 0.00 77 1012.4
20260905194402 21 311 11.3 22.5 0.00 0.00 0.00 77 1012.4
20260905194317 21 313 14.5 22.5 0.00 0.00 0.00 76 1012.4
20260905194148 21 355 14.5 22.5 0.00 0.00 0.00 76 1012.4
20260905194049 21 298 12.9 22.5 0.00 0.00 0.00 75 1012.4
20260905194012 21 333 14.5 22.5 0.00 0.00 0.00 76 1012.4
20260905193915 21 350 12.9 22.5 0.00 0.00 0.00 75 1012.4
20260905193838 21 5 12.9 22.5 0.00 0.00 0.00 75 1012.4
20260905193708 21 53 11.3 22.5 0.00 0.00 0.00 75 1012.4
20260905193625 21 13 14.5 22.5 0.00 0.00 0.00 74 1012.4
20260905193453 21 355 12.9 20.9 0.00 0.00 0.00 75 1012.4
20260905193352 21 348 12.9 20.9 0.00 0.00 0.00 75 1012.4
20260905193241 21 336 14.5 20.9 0.00 0.00 0.00 74 1012.4
20260905193203 21 355 11.3 20.9 0.00 0.00 0.00 76 1012.3
20260905193004 21 14 9.7 16.1 0.00 0.00 0.00 75 1012.3
20260905192925 21 330 9.7 16.1 0.00 0.00 0.00 75 1012.3
20260905192737 21 360 8.0 17.7 0.00 0.00 0.00 74 1012.2
20260905192632 21 24 11.3 17.7 0.00 0.00 0.00 73 1012.3
20260905192605 21 332 11.3 17.7 0.00 0.00 0.00 74 1012.3
20260905192508 21 331 11.3 17.7 0.00 0.00 0.00 74 1012.3
20260905192430 21 330 9.7 17.7 0.00 0.00 0.00 76 1012.3
20260905192250 21 319 4.8 17.7 0.00 0.00 0.00 75 1012.2
20260905192148 21 350 4.8 17.7 0.00 0.00 0.00 74 1012.3
20260905192017 21 38 9.7 17.7 0.00 0.00 0.00 75 1012.3
20260905191917 21 5 9.7 17.7 0.00 0.00 0.00 74 1012.3
20260905191821 21 336 9.7 14.5 0.00 0.00 0.00 75 1012.3
20260905191744 21 329 8.0 12.9 0.00 0.00 0.00 77 1012.3
20260905191552 21 344 4.8 8.0 0.00 0.00 0.00 75 1012.3
20260905191453 21 311 4.8 16.1 0.00 0.00 0.00 76 1012.4
20260905191334 21 355 3.2 17.7 0.00 0.00 0.00 76 1012.4
20260905191256 21 355 3.2 17.7 0.00 0.00 0.00 76 1012.3
20260905191217 21 341 3.2 17.7 0.00 0.00 0.00 76 1012.4
20260905191120 21 331 4.8 17.7 0.00 0.00 0.00 77 1012.4
20260905191041 21 341 4.8 17.7 0.00 0.00 0.00 76 1012.4
20260905190910 21 36 6.4 19.3 0.00 0.00 0.00 77 1012.4
20260905190829 21 350 6.4 19.3 0.00 0.00 0.00 77 1012.4
20260905190659 21 5 11.3 19.3 0.00 0.00 0.00 76 1012.4
20260905190622 21 325 9.7 19.3 0.00 0.00 0.00 76 1012.4
20260905190507 21 5 6.4 19.3 0.00 0.00 0.00 76 1012.4
20260905190407 21 360 6.4 19.3 0.00 0.00 0.00 75 1012.4
20260905190339 21 355 4.8 19.3 0.00 0.00 0.00 75 1012.4
20260905190209 21 22 11.3 19.3 0.00 0.00 0.00 75 1012.4
20260905190123 21 22 11.3 19.3 0.00 0.00 0.00 76 1012.4
20260905185934 21 11 8.0 19.3 0.00 0.00 0.00 77 1012.4
20260905185829 21 315 9.7 19.3 0.00 0.00 0.00 77 1012.5
20260905185751 21 340 11.3 19.3 0.00 0.00 0.00 77 1012.5
20260905185639 21 343 11.3 19.3 0.00 0.00 0.00 76 1012.5
20260905185600 21 13 9.7 20.9 0.00 0.00 0.00 77 1012.5
20260905185453 20 360 11.3 20.9 0.00 0.00 0.00 76 1012.5
20260905185415 20 360 11.3 20.9 0.00 0.00 0.00 76 1012.5
20260905185246 20 326 12.9 20.9 0.00 0.00 0.00 77 1012.6
20260905185202 20 323 11.3 20.9 0.00 0.00 0.00 76 1012.5
20260905185031 20 331 12.9 20.9 0.00 0.00 0.00 76 1012.6
20260905184931 20 341 12.9 20.9 0.00 0.00 0.00 76 1012.6
20260905184802 20 313 11.3 20.9 0.00 0.00 0.00 77 1012.5
20260905184644 20 316 9.7 20.9 0.00 0.00 0.00 78 1012.5
20260905184606 20 13 9.7 22.5 0.00 0.00 0.00 77 1012.6
20260905184415 20 355 11.3 22.5 0.00 0.00 0.00 78 1012.5
20260905184333 20 326 12.9 22.5 0.00 0.00 0.00 77 1012.5
20260905184203 20 348 11.3 22.5 0.00 0.00 0.00 78 1012.5
20260905184126 20 333 12.9 22.5 0.00 0.00 0.00 78 1012.5
20260905183929 20 360 16.1 22.5 0.00 0.00 0.00 76 1012.5
20260905183852 20 342 17.7 22.5 0.00 0.00 0.00 76 1012.5
20260905183735 20 355 16.1 22.5 0.00 0.00 0.00 77 1012.5
20260905183658 20 324 12.9 20.9 0.00 0.00 0.00 77 1012.5
20260905183458 20 355 14.5 20.9 0.00 0.00 0.00 78 1012.5
20260905183420 20 340 14.5 20.9 0.00 0.00 0.00 78 1012.5
20260905183231 20 321 9.7 22.5 0.00 0.00 0.00 78 1012.5
20260905183149 20 355 6.4 22.5 0.00 0.00 0.00 78 1012.5
20260905183019 20 11 6.4 25.7 0.00 0.00 0.00 76 1012.5
20260905182941 20 62 6.4 29.0 0.00 0.00 0.00 76 1012.5
20260905182742 21 360 11.3 29.0 0.00 0.00 0.00 76 1012.6
20260905182704 21 347 12.9 29.0 0.00 0.00 0.00 76 1012.5
20260905182609 21 333 14.5 29.0 0.00 0.00 0.00 76 1012.6
20260905182530 21 323 16.1 29.0 0.00 0.00 0.00 75 1012.6
20260905182401 21 327 17.7 29.0 0.00 0.00 0.00 74 1012.6
20260905182306 21 300 17.7 29.0 0.00 0.00 0.00 74 1012.6
20260905182113 21 300 12.9 29.0 0.00 0.00 0.00 75 1012.6
20260905182035 21 317 12.9 19.3 0.00 0.00 0.00 76 1012.6
20260905181842 21 338 11.3 19.3 0.00 0.00 0.00 78 1012.6
20260905181742 21 336 11.3 19.3 0.00 0.00 0.00 79 1012.6
20260905181647 20 343 12.9 20.9 0.00 0.00 0.00 80 1012.6
20260905181528 20 331 14.5 20.9 0.00 0.00 0.00 80 1012.6
20260905181432 20 355 14.5 20.9 0.00 0.00 0.00 81 1012.6
20260905181353 20 343 11.3 20.9 0.00 0.00 0.00 81 1012.7
20260905181202 20 342 9.7 20.9 0.00 0.00 0.00 80 1012.7
20260905181117 20 5 9.7 20.9 0.00 0.00 0.00 80 1012.7
20260905180929 20 327 11.3 20.9 0.00 0.00 0.00 80 1012.6
20260905180844 20 333 12.9 20.9 0.00 0.00 0.00 80 1012.6
20260905180717 20 28 8.0 14.5 0.00 0.00 0.00 81 1012.6
20260905180617 20 328 8.0 14.5 0.00 0.00 0.00 82 1012.7
20260905180447 19 342 8.0 19.3 0.00 0.00 0.00 82 1012.7
20260905180342 19 321 9.7 19.3 0.00 0.00 0.00 83 1012.7
20260905180224 19 341 8.0 19.3 0.00 0.00 0.00 84 1012.6
20260905180145 19 328 8.0 20.9 0.00 0.00 0.00 83 1012.7
20260905180015 19 348 6.4 20.9 0.00 0.00 0.00 83 1012.6
20260905175929 19 360 6.4 20.9 0.00 0.00 0.00 82 1012.6
20260905175740 19 12 12.9 22.5 0.00 0.00 0.00 81 1012.7
20260905175654 19 340 12.9 22.5 0.00 0.00 0.00 81 1012.7
20260905175508 19 355 12.9 22.5 0.00 0.00 0.00 81 1012.7
20260905175429 19 348 12.9 22.5 0.00 0.00 0.00 81 1012.7
20260905175232 19 337 12.9 22.5 0.00 0.00 0.00 81 1012.7
20260905175155 19 311 12.9 22.5 0.00 0.00 0.00 81 1012.7
20260905175059 19 350 14.5 22.5 0.00 0.00 0.00 81 1012.7
20260905175021 19 360 14.5 22.5 0.00 0.00 0.00 81 1012.7
20260905174823 20 348 12.9 20.9 0.00 0.00 0.00 81 1012.7
20260905174725 20 345 12.9 20.9 0.00 0.00 0.00 82 1012.7
20260905174648 20 355 11.3 20.9 0.00 0.00 0.00 81 1012.7
20260905174601 20 350 11.3 20.9 0.00 0.00 0.00 81 1012.6
20260905174434 20 347 14.5 20.9 0.00 0.00 0.00 82 1012.6
20260905174334 20 343 16.1 20.9 0.00 0.00 0.00 81 1012.6
20260905174138 20 341 9.7 17.7 0.00 0.00 0.00 83 1012.7
20260905174059 20 350 11.3 17.7 0.00 0.00 0.00 83 1012.7
20260905173923 20 350 9.7 14.5 0.00 0.00 0.00 84 1012.7
20260905173839 20 350 8.0 14.5 0.00 0.00 0.00 83 1012.7
20260905173630 20 5 6.4 14.5 0.00 0.00 0.00 83 1012.7
20260905173545 20 297 6.4 14.5 0.00 0.00 0.00 83 1012.7
20260905173414 20 340 8.0 14.5 0.00 0.00 0.00 83 1012.7
20260905173318 20 336 8.0 14.5 0.00 0.00 0.00 83 1012.7
20260905173122 19 347 6.4 14.5 0.00 0.00 0.00 84 1012.7
20260905173043 19 328 4.8 14.5 0.00 0.00 0.00 84 1012.7
20260905172947 19 328 4.8 14.5 0.00 0.00 0.00 85 1012.7
20260905172827 19 302 6.4 17.7 0.00 0.00 0.00 85 1012.7
20260905172731 19 326 8.0 17.7 0.00 0.00 0.00 83 1012.7
20260905172652 19 321 9.7 17.7 0.00 0.00 0.00 84 1012.7
20260905172624 19 324 8.0 17.7 0.00 0.00 0.00 84 1012.7
20260905172428 19 343 8.0 17.7 0.00 0.00 0.00 85 1012.7
20260905172334 19 311 8.0 17.7 0.00 0.00 0.00 85 1012.6
20260905172236 19 343 6.4 17.7 0.00 0.00 0.00 84 1012.7
20260905172137 19 327 8.0 17.7 0.00 0.00 0.00 84 1012.7
20260905172007 19 320 9.7 17.7 0.00 0.00 0.00 84 1012.6
20260905171922 19 322 9.7 17.7 0.00 0.00 0.00 84 1012.6
20260905171730 19 338 9.7 17.7 0.00 0.00 0.00 83 1012.7
20260905171645 19 326 9.7 17.7 0.00 0.00 0.00 83 1012.7
20260905171514 19 343 9.7 17.7 0.00 0.00 0.00 83 1012.7
20260905171437 19 321 12.9 17.7 0.00 0.00 0.00 83 1012.7
20260905171301 19 327 12.9 17.7 0.00 0.00 0.00 82 1012.7
20260905171229 20 350 9.7 17.7 0.00 0.00 0.00 82 1012.7
20260905170935 20 339 9.7 16.1 0.00 0.00 0.00 81 1012.6
20260905170807 20 336 11.3 16.1 0.00 0.00 0.00 81 1012.6
20260905170650 20 342 9.7 14.5 0.00 0.00 0.00 81 1012.7
20260905170610 20 313 9.7 14.5 0.00 0.00 0.00 81 1012.6
20260905170441 20 323 8.0 17.7 0.00 0.00 0.00 81 1012.6
20260905170335 20 338 9.7 17.7 0.00 0.00 0.00 81 1012.6
20260905170145 20 323 6.4 17.7 0.00 0.00 0.00 82 1012.6
20260905170106 20 313 6.4 17.7 0.00 0.00 0.00 81 1012.6
20260905165928 20 338 8.0 17.7 0.00 0.00 0.00 81 1012.6
20260905165855 20 315 6.4 17.7 0.00 0.00 0.00 82 1012.6
20260905165704 20 300 11.3 17.7 0.00 0.00 0.00 81 1012.7
20260905165619 20 333 11.3 17.7 0.00 0.00 0.00 82 1012.6
20260905165430 20 311 6.4 14.5 0.00 0.00 0.00 82 1012.6
20260905165343 20 323 6.4 14.5 0.00 0.00 0.00 81 1012.6
20260905165134 20 343 8.0 14.5 0.00 0.00 0.00 83 1012.7
20260905165030 20 335 8.0 14.5 0.00 0.00 0.00 83 1012.7
20260905164952 20 350 8.0 12.9 0.00 0.00 0.00 83 1012.6
20260905164854 20 12 6.4 16.1 0.00 0.00 0.00 84 1012.6
20260905164816 19 343 6.4 16.1 0.00 0.00 0.00 84 1012.6
20260905164624 19 315 6.4 16.1 0.00 0.00 0.00 83 1012.6
20260905164526 19 329 6.4 17.7 0.00 0.00 0.00 84 1012.6
20260905164409 19 296 8.0 17.7 0.00 0.00 0.00 83 1012.6
20260905164330 19 344 8.0 17.7 0.00 0.00 0.00 82 1012.6
20260905164134 19 324 9.7 17.7 0.00 0.00 0.00 82 1012.6
20260905164037 19 300 9.7 20.9 0.00 0.00 0.00 83 1012.7
20260905163923 19 330 8.0 20.9 0.00 0.00 0.00 83 1012.7
20260905163844 19 355 9.7 20.9 0.00 0.00 0.00 82 1012.7
20260905163717 19 327 9.7 20.9 0.00 0.00 0.00 82 1012.7
20260905163633 20 346 8.0 20.9 0.00 0.00 0.00 82 1012.7
20260905163443 20 339 12.9 20.9 0.00 0.00 0.00 81 1012.7
20260905163343 20 340 12.9 20.9 0.00 0.00 0.00 81 1012.7
20260905163145 20 300 9.7 16.1 0.00 0.00 0.00 81 1012.7
20260905163107 20 327 9.7 14.5 0.00 0.00 0.00 81 1012.7
20260905162946 20 325 8.0 14.5 0.00 0.00 0.00 81 1012.7
20260905162842 20 346 6.4 14.5 0.00 0.00 0.00 82 1012.7
20260905162736 20 330 6.4 17.7 0.00 0.00 0.00 82 1012.8
20260905162638 20 338 4.8 17.7 0.00 0.00 0.00 82 1012.7
20260905162605 20 9 4.8 17.7 0.00 0.00 0.00 82 1012.8
20260905162507 20 318 3.2 17.7 0.00 0.00 0.00 82 1012.7
20260905162428 20 339 3.2 17.7 0.00 0.00 0.00 82 1012.7
20260905162233 20 330 8.0 20.9 0.00 0.00 0.00 82 1012.8
20260905162136 20 342 9.7 20.9 0.00 0.00 0.00 81 1012.8
20260905162041 20 316 11.3 20.9 0.00 0.00 0.00 81 1012.8
20260905161941 20 20 9.7 20.9 0.00 0.00 0.00 81 1012.8
20260905161810 20 344 9.7 20.9 0.00 0.00 0.00 81 1012.8
20260905161726 20 304 9.7 20.9 0.00 0.00 0.00 81 1012.8
20260905161555 20 305 12.9 20.9 0.00 0.00 0.00 80 1012.7
20260905161518 20 355 12.9 20.9 0.00 0.00 0.00 81 1012.8
20260905161326 20 339 12.9 20.9 0.00 0.00 0.00 80 1012.8
20260905161247 20 355 11.3 17.7 0.00 0.00 0.00 81 1012.7
20260905161150 20 314 9.7 17.7 0.00 0.00 0.00 81 1012.8
20260905161030 20 340 11.3 17.7 0.00 0.00 0.00 80 1012.8
20260905160926 20 346 9.7 20.9 0.00 0.00 0.00 81 1012.8
20260905160834 20 331 8.0 20.9 0.00 0.00 0.00 80 1012.8
20260905160736 20 325 8.0 20.9 0.00 0.00 0.00 80 1012.8
20260905160624 20 360 9.7 20.9 0.00 0.00 0.00 80 1012.7
20260905160545 20 346 9.7 20.9 0.00 0.00 0.00 80 1012.7
20260905160417 20 325 8.0 20.9 0.00 0.00 0.00 81 1012.7
20260905160332 20 337 9.7 20.9 0.00 0.00 0.00 80 1012.7
20260905160143 20 315 12.9 20.9 0.00 0.00 0.00 80 1012.8
20260905160039 20 325 11.3 17.7 0.00 0.00 0.00 81 1012.8
20260905160009 20 355 11.3 17.7 0.00 0.00 0.00 81 1012.8
20260905155914 20 340 11.3 17.7 0.00 0.00 0.00 81 1012.8
20260905155836 20 344 9.7 16.1 0.00 0.00 0.00 80 1012.8
20260905155644 20 310 6.4 16.1 0.00 0.00 0.00 82 1012.8
20260905155524 20 317 6.4 16.1 0.00 0.00 0.00 81 1012.7
20260905155429 20 351 4.8 16.1 0.00 0.00 0.00 82 1012.8
20260905155332 20 360 6.4 16.1 0.00 0.00 0.00 82 1012.8
20260905155253 20 313 8.0 16.1 0.00 0.00 0.00 80 1012.8
20260905155158 20 281 6.4 19.3 0.00 0.00 0.00 81 1012.7
20260905155059 20 324 6.4 19.3 0.00 0.00 0.00 81 1012.7
20260905155020 20 333 6.4 19.3 0.00 0.00 0.00 81 1012.7
20260905154902 20 311 6.4 19.3 0.00 0.00 0.00 81 1012.7
20260905154824 20 285 6.4 19.3 0.00 0.00 0.00 82 1012.7
20260905154628 20 355 8.0 19.3 0.00 0.00 0.00 81 1012.7
20260905154532 20 344 11.3 19.3 0.00 0.00 0.00 81 1012.7
20260905154436 20 340 12.9 19.3 0.00 0.00 0.00 80 1012.7
20260905154347 20 338 11.3 19.3 0.00 0.00 0.00 80 1012.8
20260905154308 20 337 11.3 19.3 0.00 0.00 0.00 80 1012.8
20260905154151 20 310 11.3 20.9 0.00 0.00 0.00 80 1012.7
20260905154111 20 327 9.7 20.9 0.00 0.00 0.00 80 1012.8
20260905153941 20 317 11.3 20.9 0.00 0.00 0.00 79 1012.8
20260905153832 20 341 12.9 20.9 0.00 0.00 0.00 79 1012.8
20260905153703 20 284 12.9 20.9 0.00 0.00 0.00 79 1012.7
20260905153624 20 342 12.9 20.9 0.00 0.00 0.00 79 1012.7
20260905153427 20 344 12.9 20.9 0.00 0.00 0.00 78 1012.7
20260905153332 20 331 9.7 20.9 0.00 0.00 0.00 78 1012.6
20260905153245 20 337 8.0 19.3 0.00 0.00 0.00 77 1012.6
20260905153145 20 340 11.3 19.3 0.00 0.00 0.00 78 1012.7
20260905153105 20 355 9.7 19.3 0.00 0.00 0.00 78 1012.7
20260905153012 20 342 8.0 19.3 0.00 0.00 0.00 78 1012.7
20260905152942 20 341 6.4 17.7 0.00 0.00 0.00 78 1012.6
20260905152812 20 339 9.7 20.9 0.00 0.00 0.00 76 1012.6
20260905152728 20 340 11.3 20.9 0.00 0.00 0.00 75 1012.6
20260905152557 21 331 9.7 20.9 0.00 0.00 0.00 76 1012.6
20260905152518 21 340 8.0 20.9 0.00 0.00 0.00 76 1012.6
20260905152341 21 355 9.7 20.9 0.00 0.00 0.00 77 1012.6
20260905152247 21 293 9.7 20.9 0.00 0.00 0.00 76 1012.6
20260905152131 21 328 14.5 20.9 0.00 0.00 0.00 77 1012.6
20260905152052 21 329 14.5 20.9 0.00 0.00 0.00 76 1012.6
20260905151924 20 346 9.7 19.3 0.00 0.00 0.00 77 1012.6
20260905151846 20 343 9.7 19.3 0.00 0.00 0.00 75 1012.6
20260905151746 20 277 9.7 19.3 0.00 0.00 0.00 76 1012.6
20260905151649 20 311 12.9 19.3 0.00 0.00 0.00 78 1012.6
20260905151549 20 336 12.9 19.3 0.00 0.00 0.00 77 1012.6
20260905151510 20 319 11.3 19.3 0.00 0.00 0.00 78 1012.6
20260905151416 20 9 11.3 19.3 0.00 0.00 0.00 78 1012.6
20260905151337 20 348 11.3 19.3 0.00 0.00 0.00 80 1012.6
20260905151213 20 343 8.0 14.5 0.00 0.00 0.00 80 1012.6
20260905151127 20 316 6.4 17.7 0.00 0.00 0.00 80 1012.6
20260905150936 20 338 8.0 17.7 0.00 0.00 0.00 79 1012.6
20260905150850 20 336 9.7 17.7 0.00 0.00 0.00 79 1012.6
20260905150720 20 316 6.4 17.7 0.00 0.00 0.00 80 1012.7
20260905150620 20 12 6.4 17.7 0.00 0.00 0.00 80 1012.6
20260905150442 20 16 8.0 19.3 0.00 0.00 0.00 80 1012.6
20260905150405 20 345 9.7 19.3 0.00 0.00 0.00 80 1012.7
20260905150134 20 348 8.0 19.3 0.00 0.00 0.00 80 1012.6
20260905150027 20 355 9.7 19.3 0.00 0.00 0.00 79 1012.6
20260905145954 20 351 8.0 19.3 0.00 0.00 0.00 80 1012.6
20260905145857 20 355 8.0 19.3 0.00 0.00 0.00 79 1012.6
20260905145819 20 360 11.3 19.3 0.00 0.00 0.00 78 1012.6
20260905145625 20 340 12.9 19.3 0.00 0.00 0.00 79 1012.5
20260905145525 20 360 11.3 17.7 0.00 0.00 0.00 80 1012.6
20260905145429 20 355 9.7 17.7 0.00 0.00 0.00 80 1012.5
20260905145350 20 349 8.0 17.7 0.00 0.00 0.00 80 1012.5
20260905145313 20 355 9.7 17.7 0.00 0.00 0.00 80 1012.6
20260905145215 20 342 11.3 19.3 0.00 0.00 0.00 80 1012.6
20260905145136 20 313 11.3 19.3 0.00 0.00 0.00 80 1012.6
20260905145005 20 336 11.3 19.3 0.00 0.00 0.00 79 1012.5
20260905144912 20 336 9.7 19.3 0.00 0.00 0.00 79 1012.6
20260905144754 20 346 8.0 19.3 0.00 0.00 0.00 79 1012.5
20260905144635 20 355 9.7 19.3 0.00 0.00 0.00 78 1012.6
20260905144538 20 331 12.9 19.3 0.00 0.00 0.00 78 1012.6
20260905144438 20 324 12.9 19.3 0.00 0.00 0.00 79 1012.6
20260905144310 20 350 11.3 19.3 0.00 0.00 0.00 79 1012.6
20260905144223 20 300 11.3 19.3 0.00 0.00 0.00 78 1012.6
20260905144034 20 344 9.7 19.3 0.00 0.00 0.00 80 1012.6
20260905143949 20 355 11.3 19.3 0.00 0.00 0.00 78 1012.5
20260905143757 20 9 12.9 19.3 0.00 0.00 0.00 80 1012.6
20260905143720 20 342 9.7 19.3 0.00 0.00 0.00 80 1012.6
20260905143638 20 348 9.7 19.3 0.00 0.00 0.00 81 1012.6
20260905143507 20 330 11.3 19.3 0.00 0.00 0.00 81 1012.5
20260905143409 20 336 11.3 19.3 0.00 0.00 0.00 81 1012.5
20260905143332 20 335 11.3 19.3 0.00 0.00 0.00 80 1012.5
20260905143213 20 333 8.0 16.1 0.00 0.00 0.00 81 1012.5
20260905143135 20 339 8.0 14.5 0.00 0.00 0.00 81 1012.5
20260905143005 20 317 8.0 14.5 0.00 0.00 0.00 81 1012.5
20260905142919 20 323 8.0 14.5 0.00 0.00 0.00 83 1012.5
20260905142727 20 343 1.6 14.5 0.00 0.00 0.00 82 1012.5
20260905142623 20 355 0.0 0.0 0.00 0.00 0.00 83 1012.5
20260905142545 20 336 0.0 0.0 0.00 0.00 0.00 84 1012.5
20260905142432 20 320 0.0 0.0 0.00 0.00 0.00 83 1012.4
20260905142332 19 360 0.0 0.0 0.00 0.00 0.00 83 1012.5
20260905142134 19 332 0.0 0.0 0.00 0.00 0.00 82 1012.4
20260905142057 19 325 0.0 0.0 0.00 0.00 0.00 83 1012.5
20260905142001 19 350 0.0 0.0 0.00 0.00 0.00 84 1012.5
20260905141923 19 326 0.0 0.0 0.00 0.00 0.00 84 1012.5
20260905141726 19 318 0.0 0.0 0.00 0.00 0.00 84 1012.5
20260905141627 19 329 0.0 0.0 0.00 0.00 0.00 83 1012.5
20260905141531 19 311 0.0 0.0 0.00 0.00 0.00 83 1012.5
20260905141456 19 333 0.0 0.0 0.00 0.00 0.00 83 1012.5
20260905141329 19 351 0.0 0.0 0.00 0.00 0.00 85 1012.5
20260905141231 19 325 0.0 0.0 0.00 0.00 0.00 85 1012.5
20260905141155 19 333 0.0 0.0 0.00 0.00 0.00 85 1012.5
20260905141038 19 313 0.0 0.0 0.00 0.00 0.00 84 1012.5
20260905140932 19 325 0.0 0.0 0.00 0.00 0.00 84 1012.5
20260905140826 19 293 0.0 0.0 0.00 0.00 0.00 85 1012.5
20260905140730 19 341 0.0 0.0 0.00 0.00 0.00 85 1012.4
20260905140653 19 335 0.0 0.0 0.00 0.00 0.00 84 1012.4
20260905140557 19 332 0.0 0.0 0.00 0.00 0.00 84 1012.4
20260905140520 19 343 0.0 0.0 0.00 0.00 0.00 84 1012.4
20260905140324 19 342 0.0 0.0 0.00 0.00 0.00 83 1012.4
20260905140224 19 333 0.0 0.0 0.00 0.00 0.00 84 1012.4
20260905140127 19 360 0.0 0.0 0.00 0.00 0.00 84 1012.4
20260905140049 19 355 0.0 0.0 0.00 0.00 0.00 85 1012.5
20260905140012 19 345 0.0 0.0 0.00 0.00 0.00 84 1012.4
20260905135855 19 355 0.0 0.0 0.00 0.00 0.00 86 1012.4
20260905135817 19 330 0.0 0.0 0.00 0.00 0.00 86 1012.4
20260905135625 19 340 0.0 0.0 0.00 0.00 0.00 87 1012.4
20260905135546 19 348 0.0 0.0 0.00 0.00 0.00 87 1012.5
20260905135509 19 321 0.0 0.0 0.00 0.00 0.00 87 1012.5
20260905135349 18 355 0.0 0.0 0.00 0.00 0.00 87 1012.5
20260905135243 18 340 0.0 0.0 0.00 0.00 0.00 87 1012.5
20260905135204 18 355 0.0 0.0 0.00 0.00 0.00 87 1012.5
20260905135107 18 326 0.0 0.0 0.00 0.00 0.00 87 1012.5
20260905135029 18 339 0.0 0.0 0.00 0.00 0.00 87 1012.5
20260905134832 18 331 0.0 0.0 0.00 0.00 0.00 88 1012.5
20260905134737 18 342 0.0 0.0 0.00 0.00 0.00 87 1012.5
20260905134641 18 319 0.0 0.0 0.00 0.00 0.00 87 1012.5
20260905134604 18 338 0.0 0.0 0.00 0.00 0.00 88 1012.5
20260905134411 18 333 0.0 0.0 0.00 0.00 0.00 88 1012.4
20260905134305 18 331 0.0 0.0 0.00 0.00 0.00 87 1012.5
20260905134114 18 344 0.0 0.0 0.00 0.00 0.00 87 1012.5
20260905134014 18 322 0.0 0.0 0.00 0.00 0.00 87 1012.5
20260905133846 18 346 0.0 0.0 0.00 0.00 0.00 87 1012.5
20260905133739 18 315 0.0 0.0 0.00 0.00 0.00 87 1012.5
20260905133622 18 338 0.0 0.0 0.00 0.00 0.00 88 1012.4
20260905133544 18 317 0.0 0.0 0.00 0.00 0.00 88 1012.5
20260905133509 18 330 0.0 0.0 0.00 0.00 0.00 88 1012.5
20260905133352 18 346 0.0 0.0 0.00 0.00 0.00 88 1012.5
20260905133253 18 343 0.0 0.0 0.00 0.00 0.00 89 1012.5
20260905133123 18 303 0.0 0.0 0.00 0.00 0.00 88 1012.4
20260905133015 18 343 0.0 0.0 0.00 0.00 0.00 88 1012.4
20260905132826 18 342 0.0 0.0 0.00 0.00 0.00 88 1012.4
20260905132742 18 5 0.0 0.0 0.00 0.00 0.00 89 1012.4
20260905132611 18 321 0.0 0.0 0.00 0.00 0.00 89 1012.3
20260905132531 18 355 0.0 0.0 0.00 0.00 0.00 89 1012.3
20260905132402 18 346 0.0 0.0 0.00 0.00 0.00 89 1012.3
20260905132234 18 334 0.0 0.0 0.00 0.00 0.00 89 1012.3
20260905132123 18 315 0.0 0.0 0.00 0.00 0.00 89 1012.3
20260905132044 18 346 0.0 0.0 0.00 0.00 0.00 89 1012.3
20260905132005 18 339 0.0 0.0 0.00 0.00 0.00 88 1012.3
20260905131911 18 315 0.0 0.0 0.00 0.00 0.00 88 1012.3
20260905131810 18 313 0.0 0.0 0.00 0.00 0.00 89 1012.3
20260905131619 18 344 0.0 0.0 0.00 0.00 0.00 89 1012.3
20260905131533 18 344 0.0 0.0 0.00 0.00 0.00 89 1012.3
20260905131404 18 344 0.0 0.0 0.00 0.00 0.00 89 1012.3
20260905131314 18 331 0.0 0.0 0.00 0.00 0.00 89 1012.3
20260905131138 18 350 0.0 0.0 0.00 0.00 0.00 88 1012.3
20260905131025 18 292 0.0 0.0 0.00 0.00 0.00 88 1012.3
20260905130927 18 336 0.0 0.0 0.00 0.00 0.00 90 1012.3
20260905130846 18 317 0.0 0.0 0.00 0.00 0.00 89 1012.2
20260905130716 18 340 0.0 0.0 0.00 0.00 0.00 89 1012.2
20260905130631 18 311 0.0 0.0 0.00 0.00 0.00 90 1012.2
20260905130502 18 17 0.0 0.0 0.00 0.00 0.00 90 1012.1
20260905130422 18 324 0.0 0.0 0.00 0.00 0.00 90 1012.1
20260905130226 18 322 0.0 0.0 0.00 0.00 0.00 90 1012.1
20260905130147 18 331 0.0 0.0 0.00 0.00 0.00 89 1012.1
20260905130050 18 327 0.0 0.0 0.00 0.00 0.00 91 1012.1
20260905125950 18 343 0.0 0.0 0.00 0.00 0.00 91 1012.1
20260905125911 18 344 0.0 0.0 0.00 0.00 0.00 90 1012.2
20260905125818 18 346 0.0 0.0 0.00 0.00 0.00 91 1012.1
20260905125719 18 344 0.0 0.0 0.00 0.00 0.00 91 1012.1
20260905125548 18 319 0.0 0.0 0.00 0.00 0.00 91 1012.1
20260905125423 18 313 0.0 0.0 0.00 0.00 0.00 90 1012.1
20260905125326 18 327 0.0 0.0 0.00 0.00 0.00 91 1012.1
20260905125227 17 311 0.0 0.0 0.00 0.00 0.00 91 1012.1
20260905125004 17 347 0.0 0.0 0.00 0.00 0.00 90 1012.0
20260905124927 17 331 0.0 0.0 0.00 0.00 0.00 91 1012.0
20260905124728 17 338 0.0 0.0 0.00 0.00 0.00 91 1012.0
20260905124651 17 344 0.0 0.0 0.00 0.00 0.00 92 1012.1
20260905124557 17 355 0.0 0.0 0.00 0.00 0.00 91 1012.1
20260905124518 17 329 0.0 0.0 0.00 0.00 0.00 91 1012.1
20260905124349 17 330 0.0 0.0 0.00 0.00 0.00 91 1012.1
20260905124305 17 327 0.0 0.0 0.00 0.00 0.00 91 1012.1
20260905124051 17 323 0.0 0.0 0.00 0.00 0.00 91 1012.1
20260905124012 17 313 0.0 0.0 0.00 0.00 0.00 91 1012.1
20260905123915 17 317 0.0 0.0 0.00 0.00 0.00 91 1012.1
20260905123836 17 355 0.0 0.0 0.00 0.00 0.00 91 1012.1
20260905123705 17 346 0.0 0.0 0.00 0.00 0.00 91 1012.2
20260905123619 17 336 0.0 0.0 0.00 0.00 0.00 91 1012.1
20260905123427 17 337 0.0 0.0 0.00 0.00 0.00 91 1012.2
20260905123328 17 319 0.0 0.0 0.00 0.00 0.00 91 1012.2
20260905123159 17 321 0.0 0.0 0.00 0.00 0.00 91 1012.2
20260905123037 17 349 0.0 0.0 0.00 0.00 0.00 91 1012.1
20260905122957 17 337 0.0 0.0 0.00 0.00 0.00 91 1012.1
20260905122911 17 5 0.0 0.0 0.00 0.00 0.00 91 1012.1
20260905122718 17 329 0.0 0.0 0.00 0.00 0.00 91 1012.0
20260905122642 17 311 0.0 0.0 0.00 0.00 0.00 91 1012.0
20260905122534 17 355 0.0 0.0 0.00 0.00 0.00 91 1012.0
20260905122406 17 346 0.0 0.0 0.00 0.00 0.00 91 1011.9
20260905122307 17 331 0.0 0.0 0.00 0.00 0.00 91 1011.9
20260905122149 17 360 0.0 0.0 0.00 0.00 0.00 91 1011.9
20260905122028 17 338 0.0 0.0 0.00 0.00 0.00 91 1011.9
20260905121932 17 328 0.0 0.0 0.00 0.00 0.00 91 1011.9
20260905121839 17 5 0.0 0.0 0.00 0.00 0.00 91 1011.9
20260905121759 17 342 0.0 0.0 0.00 0.00 0.00 91 1011.9
20260905121702 17 351 0.0 0.0 0.00 0.00 0.00 91 1011.9
20260905121544 17 348 0.0 0.0 0.00 0.00 0.00 91 1011.9
20260905121449 17 340 0.0 0.0 0.00 0.00 0.00 91 1011.9
20260905121349 17 350 0.0 0.0 0.00 0.00 0.00 91 1011.9
20260905121132 17 340 0.0 0.0 0.00 0.00 0.00 91 1011.9
20260905121035 17 337 0.0 0.0 0.00 0.00 0.00 91 1011.9
20260905120923 17 332 0.0 0.0 0.00 0.00 0.00 91 1011.9
20260905120844 17 338 0.0 0.0 0.00 0.00 0.00 91 1011.9
20260905120725 17 328 0.0 0.0 0.00 0.00 0.00 91 1011.9
20260905120648 17 329 0.0 0.0 0.00 0.00 0.00 91 1011.8
20260905120456 17 355 0.0 0.0 0.00 0.00 0.00 91 1011.8
20260905120350 17 333 0.0 0.0 0.00 0.00 0.00 91 1011.8
20260905120158 17 24 0.0 0.0 0.00 0.00 0.00 91 1011.8
20260905120121 17 355 0.0 0.0 0.00 0.00 0.00 91 1011.8
20260905120034 17 355 0.0 0.0 0.00 0.00 0.00 91 1011.8
20260905115905 17 340 0.0 0.0 0.00 0.00 0.00 91 1011.8
20260905115826 17 339 0.0 0.0 0.00 0.00 0.00 91 1011.8
20260905115657 17 355 0.0 0.0 0.00 0.00 0.00 91 1011.8
20260905115611 17 343 0.0 0.0 0.00 0.00 0.00 91 1011.8
20260905115437 17 9 0.0 0.0 0.00 0.00 0.00 91 1011.8
20260905115334 17 336 0.0 0.0 0.00 0.00 0.00 91 1011.8
20260905115229 17 344 0.0 0.0 0.00 0.00 0.00 91 1011.8
20260905115150 17 17 0.0 0.0 0.00 0.00 0.00 91 1011.8
20260905115111 17 334 0.0 0.0 0.00 0.00 0.00 92 1011.8
20260905115014 17 340 0.0 0.0 0.00 0.00 0.00 91 1011.8
20260905114936 17 340 0.0 0.0 0.00 0.00 0.00 92 1011.8
20260905114807 17 338 0.0 0.0 0.00 0.00 0.00 92 1011.8
20260905114719 17 360 0.0 0.0 0.00 0.00 0.00 92 1011.7
20260905114423 17 360 0.0 0.0 0.00 0.00 0.00 92 1011.7
20260905114336 17 5 0.0 0.0 0.00 0.00 0.00 92 1011.7
20260905114135 17 342 0.0 0.0 0.00 0.00 0.00 92 1011.7
20260905114030 17 336 0.0 0.0 0.00 0.00 0.00 92 1011.7
20260905113952 17 355 0.0 3.2 0.00 0.00 0.00 92 1011.7
20260905113915 17 348 0.0 9.7 0.00 0.00 0.00 92 1011.7
20260905113830 17 355 0.0 9.7 0.00 0.00 0.00 92 1011.7
20260905113659 17 339 0.0 9.7 0.00 0.00 0.00 92 1011.7
20260905113620 17 329 0.0 9.7 0.00 0.00 0.00 93 1011.7
20260905113426 17 333 0.0 9.7 0.00 0.00 0.00 92 1011.8
20260905113351 17 333 0.0 9.7 0.00 0.00 0.00 92 1011.7
20260905113236 17 305 1.6 9.7 0.00 0.00 0.00 93 1011.8
20260905113156 17 340 4.8 9.7 0.00 0.00 0.00 93 1011.7
20260905113007 17 324 6.4 9.7 0.00 0.00 0.00 93 1011.7
20260905112841 17 341 4.8 9.7 0.00 0.00 0.00 93 1011.7
20260905112723 17 336 6.4 9.7 0.00 0.00 0.00 93 1011.7
20260905112645 17 331 6.4 9.7 0.00 0.00 0.00 93 1011.7
20260905112516 17 348 4.8 9.7 0.00 0.00 0.00 93 1011.6
20260905112431 17 351 6.4 9.7 0.00 0.00 0.00 93 1011.6
20260905112301 17 322 4.8 9.7 0.00 0.00 0.00 93 1011.7
20260905112226 17 324 1.6 4.8 0.00 0.00 0.00 93 1011.7
20260905112031 17 333 0.0 0.0 0.00 0.00 0.00 93 1011.6
20260905111952 17 333 0.0 0.0 0.00 0.00 0.00 93 1011.6
20260905111855 17 342 0.0 0.0 0.00 0.00 0.00 93 1011.6
20260905111755 17 342 0.0 0.0 0.00 0.00 0.00 93 1011.6
20260905111716 17 350 0.0 0.0 0.00 0.00 0.00 93 1011.6
20260905111620 17 344 0.0 0.0 0.00 0.00 0.00 93 1011.6
20260905111521 17 344 0.0 0.0 0.00 0.00 0.00 93 1011.6
20260905111442 17 344 0.0 0.0 0.00 0.00 0.00 93 1011.6
20260905111304 17 345 0.0 0.0 0.00 0.00 0.00 93 1011.6
20260905111226 17 330 0.0 0.0 0.00 0.00 0.00 93 1011.6
20260905111040 17 348 0.0 0.0 0.00 0.00 0.00 93 1011.6
20260905110934 17 339 0.0 0.0 0.00 0.00 0.00 93 1011.6
20260905110856 17 347 0.0 0.0 0.00 0.00 0.00 93 1011.6
20260905110748 17 355 0.0 0.0 0.00 0.00 0.00 93 1011.6
20260905110629 17 5 0.0 0.0 0.00 0.00 0.00 93 1011.5
20260905110533 17 338 0.0 0.0 0.00 0.00 0.00 93 1011.5
20260905110432 17 338 0.0 0.0 0.00 0.00 0.00 93 1011.5
20260905110303 16 355 0.0 0.0 0.00 0.00 0.00 94 1011.5
20260905110155 16 355 0.0 0.0 0.00 0.00 0.00 94 1011.4
20260905110004 16 355 0.0 0.0 0.00 0.00 0.00 94 1011.4
20260905105925 16 355 0.0 0.0 0.00 0.00 0.00 94 1011.4
20260905105733 16 342 0.0 0.0 0.00 0.00 0.00 94 1011.4
20260905105654 16 342 0.0 0.0 0.00 0.00 0.00 94 1011.4
20260905105558 16 355 0.0 0.0 0.00 0.00 0.00 94 1011.4
20260905105440 16 360 0.0 0.0 0.00 0.00 0.00 94 1011.4
20260905105325 16 348 0.0 0.0 0.00 0.00 0.00 94 1011.4
20260905105247 16 343 0.0 0.0 0.00 0.00 0.00 94 1011.4
20260905105208 16 15 0.0 0.0 0.00 0.00 0.00 94 1011.4
20260905105113 16 22 0.0 0.0 0.00 0.00 0.00 95 1011.4
20260905105033 16 335 0.0 0.0 0.00 0.00 0.00 95 1011.4
20260905104904 16 355 0.0 0.0 0.00 0.00 0.00 95 1011.3
20260905104824 16 355 0.0 0.0 0.00 0.00 0.00 95 1011.3
20260905104634 16 355 0.0 0.0 0.00 0.00 0.00 95 1011.2
20260905104548 16 355 0.0 0.0 0.00 0.00 0.00 95 1011.3
20260905104419 16 355 0.0 0.0 0.00 0.00 0.00 95 1011.3
20260905104341 16 355 0.0 0.0 0.00 0.00 0.00 95 1011.3
20260905104211 16 355 0.0 0.0 0.00 0.00 0.00 95 1011.3
20260905104115 16 355 0.0 0.0 0.00 0.00 0.00 95 1011.3
20260905104037 16 344 0.0 0.0 0.00 0.00 0.00 95 1011.3
20260905103845 16 355 0.0 0.0 0.00 0.00 0.00 95 1011.3
20260905103740 16 355 0.0 0.0 0.00 0.00 0.00 95 1011.3
20260905103627 16 355 0.0 0.0 0.00 0.00 0.00 96 1011.3
20260905103548 16 355 0.0 0.0 0.00 0.00 0.00 95 1011.3
20260905103512 16 355 0.0 0.0 0.00 0.00 0.00 96 1011.2
20260905103415 16 355 0.0 0.0 0.00 0.00 0.00 95 1011.2
20260905103337 16 355 0.0 0.0 0.00 0.00 0.00 95 1011.2
20260905103204 16 355 0.0 0.0 0.00 0.00 0.00 95 1011.3
20260905103119 16 355 0.0 0.0 0.00 0.00 0.00 95 1011.3
20260905102929 16 355 0.0 0.0 0.00 0.00 0.00 95 1011.3
20260905102840 16 350 0.0 0.0 0.00 0.00 0.00 95 1011.2
20260905102711 16 350 0.0 0.0 0.00 0.00 0.00 95 1011.2
20260905102632 16 5 0.0 0.0 0.00 0.00 0.00 95 1011.2
20260905102440 16 11 0.0 0.0 0.00 0.00 0.00 96 1011.2
20260905102340 16 11 0.0 0.0 0.00 0.00 0.00 96 1011.2
20260905102243 16 11 0.0 0.0 0.00 0.00 0.00 96 1011.2
20260905102204 16 11 0.0 0.0 0.00 0.00 0.00 96 1011.2
20260905102014 16 11 0.0 0.0 0.00 0.00 0.00 96 1011.2
20260905101928 16 11 0.0 0.0 0.00 0.00 0.00 96 1011.2
20260905101757 16 11 0.0 0.0 0.00 0.00 0.00 96 1011.2
20260905101721 16 11 0.0 0.0 0.00 0.00 0.00 96 1011.2
20260905101636 16 11 0.0 0.0 0.00 0.00 0.00 96 1011.2
20260905101505 16 11 0.0 0.0 0.00 0.00 0.00 96 1011.3
20260905101426 16 11 0.0 0.0 0.00 0.00 0.00 96 1011.2
20260905101311 16 11 0.0 0.0 0.00 0.00 0.00 95 1011.2
20260905101246 16 11 0.0 0.0 0.00 0.00 0.00 95 1011.2
20260905101038 16 11 0.0 0.0 0.00 0.00 0.00 95 1011.2
20260905100933 16 11 0.0 0.0 0.00 0.00 0.00 95 1011.2
20260905100854 16 11 0.0 0.0 0.00 0.00 0.00 95 1011.2
20260905100758 16 11 0.0 0.0 0.00 0.00 0.00 95 1011.3
20260905100638 16 11 0.0 0.0 0.00 0.00 0.00 95 1011.2
20260905100543 16 11 0.0 0.0 0.00 0.00 0.00 95 1011.2
20260905100503 16 11 0.0 0.0 0.00 0.00 0.00 95 1011.2
20260905100313 16 11 0.0 0.0 0.00 0.00 0.00 95 1011.2
20260905100227 16 11 0.0 0.0 0.00 0.00 0.00 95 1011.2
20260905100002 16 11 0.0 0.0 0.00 0.00 0.00 95 1011.2
20260905095755 16 11 0.0 0.0 0.00 0.00 0.00 96 1011.1
20260905095603 16 11 0.0 0.0 0.00 0.00 0.00 96 1011.2
20260905095524 16 11 0.0 0.0 0.00 0.00 0.00 96 1011.2
20260905095329 16 11 0.0 0.0 0.00 0.00 0.00 96 1011.2
20260905095250 15 11 0.0 0.0 0.00 0.00 0.00 96 1011.2
20260905095134 15 11 0.0 0.0 0.00 0.00 0.00 96 1011.2
20260905095054 15 11 0.0 0.0 0.00 0.00 0.00 95 1011.1
20260905095016 15 11 0.0 0.0 0.00 0.00 0.00 95 1011.1
20260905094921 15 11 0.0 0.0 0.00 0.00 0.00 96 1011.1
20260905094846 15 11 0.0 0.0 0.00 0.00 0.00 96 1011.1
20260905094715 15 11 0.0 0.0 0.00 0.00 0.00 95 1011.1
20260905094630 15 11 0.0 0.0 0.00 0.00 0.00 96 1011.1
20260905094500 15 11 0.0 0.0 0.00 0.00 0.00 95 1011.1
20260905094423 15 11 0.0 0.0 0.00 0.00 0.00 95 1011.1
20260905094135 15 11 0.0 0.0 0.00 0.00 0.00 95 1011.1
20260905094057 15 11 0.0 0.0 0.00 0.00 0.00 95 1011.1
20260905094001 15 11 0.0 0.0 0.00 0.00 0.00 95 1011.1
20260905093921 15 11 0.0 0.0 0.00 0.00 0.00 95 1011.1
20260905093751 15 11 0.0 0.0 0.00 0.00 0.00 95 1011.2
20260905093645 15 11 0.0 0.0 0.00 0.00 0.00 95 1011.2
20260905093515 15 11 0.0 0.0 0.00 0.00 0.00 95 1011.1
20260905093420 15 11 0.0 0.0 0.00 0.00 0.00 95 1011.1
20260905093249 15 11 0.0 0.0 0.00 0.00 0.00 95 1011.1
20260905093215 15 11 0.0 0.0 0.00 0.00 0.00 95 1011.1
20260905093026 15 11 0.0 0.0 0.00 0.00 0.00 95 1011.1
20260905092941 15 11 0.0 0.0 0.00 0.00 0.00 95 1011.1
20260905092842 15 11 0.0 0.0 0.00 0.00 0.00 95 1011.1
20260905092733 15 11 0.0 0.0 0.00 0.00 0.00 95 1011.1
20260905092633 15 11 0.0 0.0 0.00 0.00 0.00 95 1011.1
20260905092437 15 11 0.0 0.0 0.00 0.00 0.00 95 1011.1
20260905092342 15 11 0.0 0.0 0.00 0.00 0.00 95 1011.0
20260905092246 15 11 0.0 0.0 0.00 0.00 0.00 95 1011.1
20260905092146 15 11 0.0 0.0 0.00 0.00 0.00 95 1011.0
20260905092109 15 11 0.0 0.0 0.00 0.00 0.00 95 1011.1
20260905092014 15 11 0.0 0.0 0.00 0.00 0.00 95 1011.1
20260905091936 15 11 0.0 0.0 0.00 0.00 0.00 95 1011.1
20260905091805 15 11 0.0 0.0 0.00 0.00 0.00 95 1011.1
20260905091638 15 11 0.0 0.0 0.00 0.00 0.00 95 1011.0
20260905091523 15 11 0.0 0.0 0.00 0.00 0.00 95 1011.1
20260905091425 15 11 0.0 0.0 0.00 0.00 0.00 95 1011.1
20260905091352 15 11 0.0 0.0 0.00 0.00 0.00 95 1011.1
20260905091237 15 11 0.0 0.0 0.00 0.00 0.00 95 1011.1
20260905091113 15 11 0.0 0.0 0.00 0.00 0.00 95 1011.1
20260905091044 15 11 0.0 0.0 0.00 0.00 0.00 95 1011.0
20260905090940 15 11 0.0 0.0 0.00 0.00 0.00 95 1011.1
20260905090902 15 11 0.0 0.0 0.00 0.00 0.00 95 1011.1
20260905090807 15 11 0.0 0.0 0.00 0.00 0.00 95 1011.1
20260905090728 15 11 0.0 0.0 0.00 0.00 0.00 95 1011.1
20260905090536 15 11 0.0 0.0 0.00 0.00 0.00 96 1011.1
20260905090437 15 11 0.0 0.0 0.00 0.00 0.00 96 1011.1
20260905090341 15 11 0.0 0.0 0.00 0.00 0.00 95 1011.1
20260905090242 15 11 0.0 0.0 0.00 0.00 0.00 95 1011.1
20260905090113 15 11 0.0 0.0 0.00 0.00 0.00 95 1011.1
20260905090027 15 11 0.0 0.0 0.00 0.00 0.00 95 1011.1
20260905085857 15 11 0.0 0.0 0.00 0.00 0.00 95 1011.1
20260905085818 15 11 0.0 0.0 0.00 0.00 0.00 95 1011.1
20260905085641 15 11 0.0 0.0 0.00 0.00 0.00 95 1011.0
20260905085542 15 11 0.0 0.0 0.00 0.00 0.00 95 1011.0
20260905085430 15 11 0.0 0.0 0.00 0.00 0.00 95 1011.0
20260905085351 15 11 0.0 0.0 0.00 0.00 0.00 95 1011.0
20260905085251 15 11 0.0 0.0 0.00 0.00 0.00 95 1011.0
20260905085154 15 11 0.0 0.0 0.00 0.00 0.00 95 1011.0
20260905085115 15 11 0.0 0.0 0.00 0.00 0.00 95 1011.0
20260905084947 15 11 0.0 0.0 0.00 0.00 0.00 95 1011.0
20260905084842 15 11 0.0 0.0 0.00 0.00 0.00 95 1011.0
20260905084725 15 11 0.0 0.0 0.00 0.00 0.00 95 1011.0
20260905084645 15 11 0.0 0.0 0.00 0.00 0.00 95 1010.9
20260905084516 15 11 0.0 0.0 0.00 0.00 0.00 95 1011.0
20260905084431 15 11 0.0 0.0 0.00 0.00 0.00 95 1011.0
20260905084306 15 11 0.0 0.0 0.00 0.00 0.00 95 1010.9
20260905084228 15 11 0.0 0.0 0.00 0.00 0.00 95 1010.9
20260905084032 15 11 0.0 0.0 0.00 0.00 0.00 95 1010.9
20260905083952 15 11 0.0 0.0 0.00 0.00 0.00 95 1010.9
20260905083855 15 11 0.0 0.0 0.00 0.00 0.00 95 1010.9
20260905083817 15 11 0.0 0.0 0.00 0.00 0.00 95 1010.9
20260905083538 15 11 0.0 0.0 0.00 0.00 0.00 95 1010.9
20260905083431 15 11 0.0 0.0 0.00 0.00 0.00 95 1010.9
20260905083334 15 11 0.0 0.0 0.00 0.00 0.00 95 1010.9
20260905083239 15 11 0.0 0.0 0.00 0.00 0.00 95 1010.9
20260905083200 15 11 0.0 0.0 0.00 0.00 0.00 95 1010.9
20260905083105 15 11 0.0 0.0 0.00 0.00 0.00 95 1010.9
20260905083004 15 11 0.0 0.0 0.00 0.00 0.00 95 1010.9
20260905082835 15 11 0.0 0.0 0.00 0.00 0.00 95 1010.9
20260905082730 15 11 0.0 0.0 0.00 0.00 0.00 95 1010.9
20260905082540 15 11 0.0 0.0 0.00 0.00 0.00 95 1010.9
20260905082429 15 11 0.0 0.0 0.00 0.00 0.00 95 1010.9
20260905082309 15 11 0.0 0.0 0.00 0.00 0.00 95 1010.9
20260905082222 15 11 0.0 0.0 0.00 0.00 0.00 95 1010.9
20260905082052 15 11 0.0 0.0 0.00 0.00 0.00 95 1010.9
20260905081937 14 11 0.0 0.0 0.00 0.00 0.00 95 1010.9
20260905081839 14 11 0.0 0.0 0.00 0.00 0.00 95 1010.9
20260905081801 14 11 0.0 0.0 0.00 0.00 0.00 95 1010.9
20260905081640 14 11 0.0 0.0 0.00 0.00 0.00 95 1010.9
20260905081534 14 11 0.0 0.0 0.00 0.00 0.00 95 1010.9
20260905081404 14 11 0.0 0.0 0.00 0.00 0.00 95 1010.9
20260905081326 14 11 0.0 0.0 0.00 0.00 0.00 95 1010.9
20260905081131 14 11 0.0 0.0 0.00 0.00 0.00 95 1010.9
20260905081053 14 11 0.0 0.0 0.00 0.00 0.00 95 1010.9
20260905080956 14 11 0.0 0.0 0.00 0.00 0.00 95 1010.9
20260905080918 14 11 0.0 0.0 0.00 0.00 0.00 95 1010.9
20260905080724 14 11 0.0 0.0 0.00 0.00 0.00 95 1010.9
20260905080626 14 11 0.0 0.0 0.00 0.00 0.00 95 1010.9
20260905080531 14 11 0.0 0.0 0.00 0.00 0.00 95 1010.9
20260905080452 14 11 0.0 0.0 0.00 0.00 0.00 95 1010.9
20260905080412 14 11 0.0 0.0 0.00 0.00 0.00 95 1010.9
20260905080316 14 11 0.0 0.0 0.00 0.00 0.00 95 1010.9
20260905080216 14 11 0.0 0.0 0.00 0.00 0.00 95 1010.9
20260905080027 14 11 0.0 0.0 0.00 0.00 0.00 95 1010.9
20260905075923 14 11 0.0 0.0 0.00 0.00 0.00 95 1010.9
20260905075848 14 11 0.0 0.0 0.00 0.00 0.00 95 1010.9
20260905075752 14 11 0.0 0.0 0.00 0.00 0.00 95 1010.9
20260905075634 14 11 0.0 0.0 0.00 0.00 0.00 95 1010.9
20260905075538 14 11 0.0 0.0 0.00 0.00 0.00 95 1010.9
20260905075459 14 11 0.0 0.0 0.00 0.00 0.00 95 1010.9
20260905075307 14 11 0.0 0.0 0.00 0.00 0.00 95 1010.9
20260905075140 14 11 0.0 0.0 0.00 0.00 0.00 95 1010.9
20260905075023 14 11 0.0 0.0 0.00 0.00 0.00 95 1010.8
20260905074946 14 11 0.0 0.0 0.00 0.00 0.00 95 1010.9
20260905074846 14 11 0.0 0.0 0.00 0.00 0.00 95 1010.8
20260905074732 14 11 0.0 0.0 0.00 0.00 0.00 95 1010.8
20260905074654 14 11 0.0 0.0 0.00 0.00 0.00 95 1010.9
20260905074455 14 11 0.0 0.0 0.00 0.00 0.00 95 1010.9
20260905074417 14 11 0.0 0.0 0.00 0.00 0.00 94 1010.9
20260905074228 14 11 0.0 0.0 0.00 0.00 0.00 94 1010.9
20260905074140 14 11 0.0 0.0 0.00 0.00 0.00 94 1010.9
20260905074042 14 11 0.0 0.0 0.00 0.00 0.00 94 1010.9
20260905073945 14 11 0.0 0.0 0.00 0.00 0.00 94 1010.9
20260905073906 14 11 0.0 0.0 0.00 0.00 0.00 94 1010.9
20260905073735 14 11 0.0 0.0 0.00 0.00 0.00 94 1010.8
20260905073634 14 11 0.0 0.0 0.00 0.00 0.00 94 1010.8
20260905073503 14 11 0.0 0.0 0.00 0.00 0.00 94 1010.8
20260905073325 14 11 0.0 0.0 0.00 0.00 0.00 94 1010.8
20260905073246 14 11 0.0 0.0 0.00 0.00 0.00 94 1010.8
20260905073146 14 11 0.0 0.0 0.00 0.00 0.00 94 1010.9
20260905073051 14 11 0.0 0.0 0.00 0.00 0.00 94 1010.9
20260905072950 14 11 0.0 0.0 0.00 0.00 0.00 94 1010.8
20260905072759 14 11 0.0 0.0 0.00 0.00 0.00 94 1010.8
20260905072714 14 11 0.0 0.0 0.00 0.00 0.00 94 1010.8
20260905072524 14 11 0.0 0.0 0.00 0.00 0.00 94 1010.8
20260905072440 14 11 0.0 0.0 0.00 0.00 0.00 94 1010.8
20260905072313 14 11 0.0 0.0 0.00 0.00 0.00 94 1010.9
20260905072233 14 11 0.0 0.0 0.00 0.00 0.00 94 1010.9
20260905072105 14 11 0.0 0.0 0.00 0.00 0.00 94 1010.9
20260905072019 14 11 0.0 0.0 0.00 0.00 0.00 94 1010.9
20260905071849 14 11 0.0 0.0 0.00 0.00 0.00 94 1011.0
20260905071749 14 11 0.0 0.0 0.00 0.00 0.00 94 1010.9
20260905071622 14 11 0.0 0.0 0.00 0.00 0.00 94 1011.0
20260905071548 14 11 0.0 0.0 0.00 0.00 0.00 94 1011.0
20260905071509 14 11 0.0 0.0 0.00 0.00 0.00 94 1011.0
20260905071318 14 11 0.0 0.0 0.00 0.00 0.00 94 1011.0
20260905071231 14 11 0.0 0.0 0.00 0.00 0.00 94 1011.0
20260905071105 14 11 0.0 0.0 0.00 0.00 0.00 94 1011.0
20260905071026 14 11 0.0 0.0 0.00 0.00 0.00 94 1011.0
20260905070829 14 11 0.0 0.0 0.00 0.00 0.00 94 1011.1
20260905070725 14 11 0.0 0.0 0.00 0.00 0.00 94 1011.1
20260905070627 14 11 0.0 0.0 0.00 0.00 0.00 94 1011.1
20260905070542 14 11 0.0 0.0 0.00 0.00 0.00 94 1011.1
20260905070412 14 11 0.0 0.0 0.00 0.00 0.00 93 1011.1
20260905070335 14 11 0.0 0.0 0.00 0.00 0.00 93 1011.1
20260905070138 14 11 0.0 0.0 0.00 0.00 0.00 93 1011.1
20260905070044 15 11 0.0 0.0 0.00 0.00 0.00 93 1011.1
20260905065950 15 11 0.0 0.0 0.00 0.00 0.00 93 1011.1
20260905065830 15 11 0.0 0.0 0.00 0.00 0.00 93 1011.2
20260905065733 15 11 0.0 0.0 0.00 0.00 0.00 93 1011.1
20260905065654 15 11 0.0 0.0 0.00 0.00 0.00 93 1011.1
20260905065502 15 11 0.0 0.0 0.00 0.00 0.00 93 1011.2
20260905065416 15 11 0.0 0.0 0.00 0.00 0.00 93 1011.1
20260905065225 15 11 0.0 0.0 0.00 0.00 0.00 93 1011.2
20260905065140 15 11 0.0 0.0 0.00 0.00 0.00 93 1011.2
20260905065009 15 11 0.0 0.0 0.00 0.00 0.00 93 1011.2
20260905064935 15 11 0.0 0.0 0.00 0.00 0.00 93 1011.2
20260905064738 15 11 0.0 0.0 0.00 0.00 0.00 93 1011.2
20260905064659 15 11 0.0 0.0 0.00 0.00 0.00 94 1011.2
20260905064603 15 11 0.0 0.0 0.00 0.00 0.00 94 1011.2
20260905064524 15 11 0.0 0.0 0.00 0.00 0.00 93 1011.2
20260905064354 15 11 0.0 0.0 0.00 0.00 0.00 94 1011.1
20260905064248 15 11 0.0 0.0 0.00 0.00 0.00 94 1011.1
20260905064057 15 11 0.0 0.0 0.00 0.00 0.00 94 1011.1
20260905064017 15 11 0.0 0.0 0.00 0.00 0.00 94 1011.1
20260905063840 15 11 0.0 0.0 0.00 0.00 0.00 94 1011.1
20260905063800 15 11 0.0 0.0 0.00 0.00 0.00 94 1011.1
20260905063612 15 11 0.0 0.0 0.00 0.00 0.00 94 1011.1
20260905063526 15 11 0.0 0.0 0.00 0.00 0.00 94 1011.1
20260905063354 15 11 0.0 0.0 0.00 0.00 0.00 94 1011.0
20260905063253 15 11 0.0 0.0 0.00 0.00 0.00 94 1011.1
20260905063127 15 11 0.0 0.0 0.00 0.00 0.00 94 1011.1
20260905062957 15 11 0.0 0.0 0.00 0.00 0.00 94 1011.0
20260905062850 15 11 0.0 0.0 0.00 0.00 0.00 94 1011.0
20260905062640 15 11 0.0 0.0 0.00 0.00 0.00 93 1011.0
20260905062533 15 11 0.0 0.0 0.00 0.00 0.00 93 1011.0
20260905062422 15 11 0.0 0.0 0.00 0.00 0.00 93 1011.0
20260905062343 15 11 0.0 0.0 0.00 0.00 0.00 93 1011.0
20260905062306 15 11 0.0 0.0 0.00 0.00 0.00 93 1011.1
20260905062210 15 11 0.0 0.0 0.00 0.00 0.00 93 1011.0
20260905062131 15 11 0.0 0.0 0.00 0.00 0.00 93 1011.0
20260905062001 15 11 0.0 0.0 0.00 0.00 0.00 93 1011.1
20260905061853 15 11 0.0 0.0 0.00 0.00 0.00 93 1011.0
20260905061643 15 11 0.0 0.0 0.00 0.00 0.00 93 1011.0
20260905061557 15 11 0.0 0.0 0.00 0.00 0.00 93 1011.1
20260905061407 15 11 0.0 0.0 0.00 0.00 0.00 93 1011.1
20260905061329 15 11 0.0 0.0 0.00 0.00 0.00 93 1011.1
20260905061136 15 11 0.0 0.0 0.00 0.00 0.00 93 1011.1
20260905061037 15 11 0.0 0.0 0.00 0.00 0.00 93 1011.1
20260905060940 15 11 0.0 0.0 0.00 0.00 0.00 93 1011.1
20260905060818 15 11 0.0 0.0 0.00 0.00 0.00 93 1011.1
20260905060649 15 11 0.0 0.0 0.00 0.00 0.00 93 1011.1
20260905060604 15 11 0.0 0.0 0.00 0.00 0.00 93 1011.1
20260905060434 16 11 0.0 0.0 0.00 0.00 0.00 93 1011.1
20260905060336 16 11 0.0 0.0 0.00 0.00 0.00 93 1011.1
20260905060218 16 11 0.0 0.0 0.00 0.00 0.00 93 1011.1
20260905060140 16 11 0.0 0.0 0.00 0.00 0.00 93 1011.1
20260905060011 16 11 0.0 0.0 0.00 0.00 0.00 93 1011.1
20260905055925 16 11 0.0 0.0 0.00 0.00 0.00 94 1011.1
20260905055759 16 11 0.0 0.0 0.00 0.00 0.00 94 1011.1
20260905055721 16 11 0.0 0.0 0.00 0.00 0.00 94 1011.1
20260905055523 16 11 0.0 0.0 0.00 0.00 0.00 94 1011.0
20260905055426 16 11 0.0 0.0 0.00 0.00 0.00 93 1011.1
20260905055331 16 11 0.0 0.0 0.00 0.00 0.00 93 1011.1
20260905055252 16 11 0.0 0.0 0.00 0.00 0.00 93 1011.1
20260905055215 16 11 0.0 0.0 0.00 0.00 0.00 93 1011.0
20260905055117 16 11 0.0 0.0 0.00 0.00 0.00 94 1011.0
20260905055040 16 11 0.0 0.0 0.00 0.00 0.00 94 1011.0
20260905054909 16 11 0.0 0.0 0.00 0.00 0.00 94 1011.0
20260905054823 16 11 0.0 0.0 0.00 0.00 0.00 94 1011.0
20260905054657 16 11 0.0 0.0 0.00 0.00 0.00 94 1011.0
20260905054619 16 11 0.0 0.0 0.00 0.00 0.00 94 1011.1
20260905054448 16 11 0.0 0.0 0.00 0.00 0.00 94 1011.0
20260905054343 16 11 0.0 0.0 0.00 0.00 0.00 94 1011.0
20260905054304 16 11 0.0 0.0 0.00 0.00 0.00 94 1011.0
20260905054208 16 11 0.0 0.0 0.00 0.00 0.00 94 1011.0
20260905054107 16 11 0.0 0.0 0.00 0.00 0.00 94 1011.0
20260905054030 16 11 0.0 0.0 0.00 0.00 0.00 94 1011.0
20260905053921 16 11 0.0 0.0 0.00 0.00 0.00 94 1011.0
20260905053821 16 11 0.0 0.0 0.00 0.00 0.00 94 1011.0
20260905053627 16 11 0.0 0.0 0.00 0.00 0.00 94 1011.0
20260905053532 16 11 0.0 0.0 0.00 0.00 0.00 94 1011.0
20260905053435 16 11 0.0 0.0 0.00 0.00 0.00 94 1011.0
20260905053357 16 11 0.0 0.0 0.00 0.00 0.00 94 1011.0
20260905053319 16 11 0.0 0.0 0.00 0.00 0.00 94 1011.0
20260905053222 16 11 0.0 0.0 0.00 0.00 0.00 94 1011.0
20260905053123 16 11 0.0 0.0 0.00 0.00 0.00 94 1011.0
20260905052935 16 11 0.0 0.0 0.00 0.00 0.00 94 1011.0
20260905052828 16 11 0.0 0.0 0.00 0.00 0.00 94 1011.0
20260905052730 16 11 0.0 0.0 0.00 0.00 0.00 94 1011.0
20260905052636 16 11 0.0 0.0 0.00 0.00 0.00 94 1011.0
20260905052559 16 11 0.0 0.0 0.00 0.00 0.00 94 1011.0
20260905052423 16 11 0.0 0.0 0.00 0.00 0.00 94 1011.0
20260905052340 16 11 0.0 0.0 0.00 0.00 0.00 94 1011.0
20260905052240 16 11 0.0 0.0 0.00 0.00 0.00 94 1011.0
20260905052125 16 11 0.0 0.0 0.00 0.00 0.00 94 1011.1
20260905052046 16 11 0.0 0.0 0.00 0.00 0.00 94 1011.0
20260905051931 16 11 0.0 0.0 0.00 0.00 0.00 94 1011.1
20260905051852 16 11 0.0 0.0 0.00 0.00 0.00 94 1011.0
20260905051727 16 11 0.0 0.0 0.00 0.00 0.00 94 1011.1
20260905051648 16 11 0.0 0.0 0.00 0.00 0.00 94 1011.1
20260905051610 16 11 0.0 0.0 0.00 0.00 0.00 94 1011.1
20260905051513 16 11 0.0 0.0 0.00 0.00 0.00 94 1011.1
20260905051433 16 11 0.0 0.0 0.00 0.00 0.00 94 1011.1
20260905051305 16 11 0.0 0.0 0.00 0.00 0.00 94 1011.1
20260905051218 16 11 0.0 0.0 0.00 0.00 0.00 94 1011.1
20260905051050 16 11 0.0 0.0 0.00 0.00 0.00 94 1011.1
20260905050949 16 11 0.0 0.0 0.00 0.00 0.00 94 1011.2
20260905050834 16 11 0.0 0.0 0.00 0.00 0.00 94 1011.2
20260905050805 16 11 0.0 0.0 0.00 0.00 0.00 94 1011.2
20260905050709 16 11 0.0 0.0 0.00 0.00 0.00 94 1011.2
20260905050612 16 11 0.0 0.0 0.00 0.00 0.00 94 1011.2
20260905050533 16 11 0.0 0.0 0.00 0.00 0.00 94 1011.2
20260905050337 16 11 0.0 0.0 0.00 0.00 0.00 94 1011.2
20260905050239 16 11 0.0 0.0 0.00 0.00 0.00 94 1011.2
20260905050143 16 11 0.0 0.0 0.00 0.00 0.00 94 1011.2
20260905050105 16 11 0.0 0.0 0.00 0.00 0.00 94 1011.2
20260905045913 16 11 0.0 0.0 0.00 0.00 0.00 94 1011.2
20260905045830 16 11 0.0 0.0 0.00 0.00 0.00 94 1011.2
20260905045639 16 11 0.0 0.0 0.00 0.00 0.00 94 1011.2
20260905045606 16 11 0.0 0.0 0.00 0.00 0.00 94 1011.1
20260905045417 16 11 0.0 0.0 0.00 0.00 0.00 94 1011.2
20260905045339 16 11 0.0 0.0 0.00 0.00 0.00 94 1011.1
20260905045147 16 11 0.0 0.0 0.00 0.00 0.00 94 1011.2
20260905045024 16 11 0.0 0.0 0.00 0.00 0.00 94 1011.2
20260905044929 16 11 0.0 0.0 0.00 0.00 0.00 94 1011.2
20260905044849 16 11 0.0 0.0 0.00 0.00 0.00 94 1011.2
20260905044718 16 11 0.0 0.0 0.00 0.00 0.00 94 1011.2
20260905044632 16 11 0.0 0.0 0.00 0.00 0.00 94 1011.2
20260905044441 16 11 0.0 0.0 0.00 0.00 0.00 94 1011.2
20260905044341 16 11 0.0 0.0 0.00 0.00 0.00 94 1011.2
20260905044225 16 11 0.0 0.0 0.00 0.00 0.00 94 1011.2
20260905044147 16 11 0.0 0.0 0.00 0.00 0.00 94 1011.2
20260905044110 16 11 0.0 0.0 0.00 0.00 0.00 94 1011.2
20260905043955 16 11 0.0 0.0 0.00 0.00 0.00 94 1011.2
20260905043915 16 11 0.0 0.0 0.00 0.00 0.00 94 1011.2
20260905043745 16 11 0.0 0.0 0.00 0.00 0.00 93 1011.2
20260905043638 16 11 0.0 0.0 0.00 0.00 0.00 93 1011.2
20260905043508 16 11 0.0 0.0 0.00 0.00 0.00 93 1011.2
20260905043407 16 11 0.0 0.0 0.00 0.00 0.00 93 1011.2
20260905043309 16 11 0.0 0.0 0.00 0.00 0.00 93 1011.2
20260905043216 16 11 0.0 0.0 0.00 0.00 0.00 94 1011.2
20260905043137 16 11 0.0 0.0 0.00 0.00 0.00 94 1011.2
20260905043007 16 11 0.0 0.0 0.00 0.00 0.00 94 1011.2
20260905042920 16 11 0.0 0.0 0.00 0.00 0.00 94 1011.2
20260905042729 16 11 0.0 0.0 0.00 0.00 0.00 94 1011.2
20260905042643 16 11 0.0 0.0 0.00 0.00 0.00 94 1011.2
20260905042514 16 11 0.0 0.0 0.00 0.00 0.00 93 1011.1
20260905042436 16 11 0.0 0.0 0.00 0.00 0.00 93 1011.1
20260905042240 16 11 0.0 0.0 0.00 0.00 0.00 93 1011.2
20260905042201 16 11 0.0 0.0 0.00 0.00 0.00 93 1011.2
20260905042104 16 11 0.0 0.0 0.00 0.00 0.00 93 1011.2
20260905042009 16 11 0.0 0.0 0.00 0.00 0.00 93 1011.2
20260905041728 16 11 0.0 0.0 0.00 0.00 0.00 93 1011.2
20260905041622 16 11 0.0 0.0 0.00 0.00 0.00 93 1011.2
20260905041553 16 11 0.0 0.0 0.00 0.00 0.00 93 1011.3
20260905041457 16 11 0.0 0.0 0.00 0.00 0.00 93 1011.2
20260905041419 16 11 0.0 0.0 0.00 0.00 0.00 93 1011.2
20260905041248 16 11 0.0 0.0 0.00 0.00 0.00 93 1011.2
20260905041125 16 11 0.0 0.0 0.00 0.00 0.00 93 1011.2
20260905041030 16 11 0.0 0.0 0.00 0.00 0.00 93 1011.2
20260905040955 16 11 0.0 0.0 0.00 0.00 0.00 93 1011.2
20260905040804 16 11 0.0 0.0 0.00 0.00 0.00 93 1011.2
20260905040727 16 11 0.0 0.0 0.00 0.00 0.00 93 1011.2
20260905040548 16 11 0.0 0.0 0.00 0.00 0.00 93 1011.2
20260905040329 16 11 0.0 0.0 0.00 0.00 0.00 93 1011.2
20260905040230 16 11 0.0 0.0 0.00 0.00 0.00 93 1011.2
20260905040134 16 11 0.0 0.0 0.00 0.00 0.00 93 1011.2
20260905040036 16 11 0.0 0.0 0.00 0.00 0.00 93 1011.2
20260905035959 16 11 0.0 0.0 0.00 0.00 0.00 93 1011.4
20260905035826 16 11 0.0 0.0 0.00 0.00 0.00 93 1011.3
20260905035743 16 11 0.0 0.0 0.00 0.00 0.00 93 1011.4
20260905035703 16 11 0.0 0.0 0.00 0.00 0.00 93 1011.4
20260905035605 16 11 0.0 0.0 0.00 0.00 0.00 93 1011.3
20260905035520 16 11 0.0 0.0 0.00 0.00 0.00 93 1011.3
20260905035332 16 11 0.0 0.0 0.00 0.00 0.00 93 1011.3
20260905035247 16 11 0.0 0.0 0.00 0.00 0.00 93 1011.3
20260905035037 16 11 0.0 0.0 0.00 0.00 0.00 93 1011.3
20260905034952 16 11 0.0 0.0 0.00 0.00 0.00 92 1011.3
20260905034821 16 11 0.0 0.0 0.00 0.00 0.00 92 1011.3
20260905034747 16 11 0.0 0.0 0.00 0.00 0.00 92 1011.3
20260905034529 16 11 0.0 0.0 0.00 0.00 0.00 92 1011.3
20260905034450 16 11 0.0 0.0 0.00 0.00 0.00 92 1011.3
20260905034334 16 11 0.0 0.0 0.00 0.00 0.00 92 1011.3
20260905034257 16 11 0.0 0.0 0.00 0.00 0.00 92 1011.2
20260905034218 16 11 0.0 0.0 0.00 0.00 0.00 92 1011.3
20260905034121 16 11 0.0 0.0 0.00 0.00 0.00 92 1011.4
20260905034042 16 11 0.0 0.0 0.00 0.00 0.00 92 1011.4
20260905033914 16 11 0.0 0.0 0.00 0.00 0.00 92 1011.3
20260905033829 16 11 0.0 0.0 0.00 0.00 0.00 92 1011.3
20260905033642 16 11 0.0 0.0 0.00 0.00 0.00 92 1011.3
20260905033539 16 11 0.0 0.0 0.00 0.00 0.00 92 1011.2
20260905033423 16 11 0.0 0.0 0.00 0.00 0.00 93 1011.3
20260905033345 16 11 0.0 0.0 0.00 0.00 0.00 93 1011.2
20260905033215 16 11 0.0 0.0 0.00 0.00 0.00 93 1011.2
20260905033129 16 11 0.0 0.0 0.00 0.00 0.00 93 1011.2
20260905032959 16 11 0.0 0.0 0.00 0.00 0.00 93 1011.2
20260905032920 16 11 0.0 0.0 0.00 0.00 0.00 93 1011.1
20260905032725 16 11 0.0 0.0 0.00 0.00 0.00 92 1011.2
20260905032632 16 11 0.0 0.0 0.00 0.00 0.00 92 1011.1
20260905032536 16 11 0.0 0.0 0.00 0.00 0.00 92 1011.1
20260905032458 16 11 0.0 0.0 0.00 0.00 0.00 92 1011.2
20260905032306 16 11 0.0 0.0 0.00 0.00 0.00 92 1011.1
20260905032221 16 11 0.0 0.0 0.00 0.00 0.00 92 1011.1
20260905032032 16 11 0.0 0.0 0.00 0.00 0.00 92 1011.1
20260905031947 16 11 0.0 0.0 0.00 0.00 0.00 92 1011.1
20260905031817 16 11 0.0 0.0 0.00 0.00 0.00 92 1011.1
20260905031717 16 11 0.0 0.0 0.00 0.00 0.00 92 1011.1
20260905031620 16 11 0.0 0.0 0.00 0.00 0.00 92 1011.1
20260905031540 16 11 0.0 0.0 0.00 0.00 0.00 92 1011.1
20260905031336 16 11 0.0 0.0 0.00 0.00 0.00 92 1011.1
20260905031241 16 11 0.0 0.0 0.00 0.00 0.00 92 1011.1
20260905031202 16 11 0.0 0.0 0.00 0.00 0.00 92 1011.1
20260905031108 16 11 0.0 0.0 0.00 0.00 0.00 92 1011.1
20260905031040 16 11 0.0 0.0 0.00 0.00 0.00 92 1011.1
20260905030910 16 11 0.0 0.0 0.00 0.00 0.00 92 1011.1
20260905030824 16 11 0.0 0.0 0.00 0.00 0.00 92 1011.1
20260905030635 17 11 0.0 0.0 0.00 0.00 0.00 92 1011.2
20260905030550 16 11 0.0 0.0 0.00 0.00 0.00 92 1011.1
20260905030419 17 11 0.0 0.0 0.00 0.00 0.00 92 1011.2
20260905030341 17 11 0.0 0.0 0.00 0.00 0.00 92 1011.2
20260905030216 17 11 0.0 0.0 0.00 0.00 0.00 92 1011.2
20260905030128 17 11 0.0 0.0 0.00 0.00 0.00 92 1011.2
20260905025939 17 11 0.0 0.0 0.00 0.00 0.00 92 1011.3
20260905025854 17 11 0.0 0.0 0.00 0.00 0.00 92 1011.2
20260905025642 17 11 0.0 0.0 0.00 0.00 0.00 92 1011.2
20260905025537 17 11 0.0 0.0 0.00 0.00 0.00 91 1011.2
20260905025500 17 11 0.0 0.0 0.00 0.00 0.00 92 1011.2
20260905025405 17 11 0.0 0.0 0.00 0.00 0.00 92 1011.3
20260905025326 17 11 0.0 0.0 0.00 0.00 0.00 92 1011.3
20260905025134 17 11 0.0 0.0 0.00 0.00 0.00 92 1011.2
20260905025036 17 11 0.0 0.0 0.00 0.00 0.00 92 1011.2
20260905024939 17 11 0.0 0.0 0.00 0.00 0.00 92 1011.2
20260905024839 17 11 0.0 0.0 0.00 0.00 0.00 92 1011.2
20260905024708 17 11 0.0 0.0 0.00 0.00 0.00 92 1011.2
20260905024624 17 11 0.0 0.0 0.00 0.00 0.00 92 1011.2
20260905024433 17 11 0.0 0.0 0.00 0.00 0.00 92 1011.3
20260905024349 17 11 0.0 0.0 0.00 0.00 0.00 92 1011.3
20260905024220 17 11 0.0 0.0 0.00 0.00 0.00 92 1011.3
20260905024143 17 11 0.0 0.0 0.00 0.00 0.00 92 1011.3
20260905024005 17 11 0.0 0.0 0.00 0.00 0.00 92 1011.4
20260905023932 17 11 0.0 0.0 0.00 0.00 0.00 92 1011.4
20260905023742 17 11 0.0 0.0 0.00 0.00 0.00 92 1011.3
20260905023637 17 11 0.0 0.0 0.00 0.00 0.00 92 1011.3
20260905023600 17 11 0.0 0.0 0.00 0.00 0.00 92 1011.3
20260905023515 17 11 0.0 0.0 0.00 0.00 0.00 92 1011.3
20260905023436 17 11 0.0 0.0 0.00 0.00 0.00 92 1011.3
20260905023255 17 11 0.0 0.0 0.00 0.00 0.00 92 1011.3
20260905023210 17 11 0.0 0.0 0.00 0.00 0.00 92 1011.3
20260905023020 17 11 0.0 0.0 0.00 0.00 0.00 92 1011.2
20260905022941 17 11 0.0 0.0 0.00 0.00 0.00 92 1011.2
20260905022813 17 11 0.0 0.0 0.00 0.00 0.00 92 1011.4
20260905022730 17 11 0.0 0.0 0.00 0.00 0.00 92 1011.4
20260905022540 17 11 0.0 0.0 0.00 0.00 0.00 91 1011.4
20260905022434 17 11 0.0 0.0 0.00 0.00 0.00 91 1011.4
20260905022357 17 11 0.0 0.0 0.00 0.00 0.00 91 1011.4
20260905022301 17 11 0.0 0.0 0.00 0.00 0.00 91 1011.4
20260905022141 17 11 0.0 0.0 0.00 0.00 0.00 91 1011.5
20260905022035 17 11 0.0 0.0 0.00 0.00 0.00 91 1011.5
20260905021958 17 11 0.0 0.0 0.00 0.00 0.00 91 1011.5
20260905021900 17 11 0.0 0.0 0.00 0.00 0.00 90 1011.6
20260905021827 17 11 0.0 0.0 0.00 0.00 0.00 90 1011.6
20260905021657 17 11 0.0 0.0 0.00 0.00 0.00 90 1011.6
20260905021611 17 11 0.0 0.0 0.00 0.00 0.00 90 1011.6
20260905021442 17 11 0.0 0.0 0.00 0.00 0.00 90 1011.6
20260905021342 17 11 0.0 0.0 0.00 0.00 0.00 90 1011.6
20260905021153 17 11 0.0 0.0 0.00 0.00 0.00 90 1011.6
20260905021055 17 11 0.0 0.0 0.00 0.00 0.00 90 1011.6
20260905021016 17 11 0.0 0.0 0.00 0.00 0.00 90 1011.6
20260905020846 17 11 0.0 0.0 0.00 0.00 0.00 90 1011.6
20260905020742 17 11 0.0 0.0 0.00 0.00 0.00 90 1011.6
20260905020702 17 11 0.0 0.0 0.00 0.00 0.00 90 1011.7
20260905020605 17 11 0.0 0.0 0.00 0.00 0.00 90 1011.7
20260905020531 17 11 0.0 0.0 0.00 0.00 0.00 90 1011.7
20260905020401 17 11 0.0 0.0 0.00 0.00 0.00 89 1011.7
20260905020317 17 11 0.0 0.0 0.00 0.00 0.00 89 1011.7
20260905020126 17 11 0.0 0.0 0.00 0.00 0.00 89 1011.7
20260905020041 17 11 0.0 0.0 0.00 0.00 0.00 89 1011.6
20260905015831 17 11 0.0 0.0 0.00 0.00 0.00 90 1011.6
20260905015746 17 11 0.0 0.0 0.00 0.00 0.00 90 1011.6
20260905015617 17 11 0.0 0.0 0.00 0.00 0.00 90 1011.5
20260905015540 17 11 0.0 0.0 0.00 0.00 0.00 90 1011.5
20260905015328 17 11 0.0 1.6 0.00 0.00 0.00 90 1011.6
20260905015249 17 11 0.0 3.2 0.00 0.00 0.00 90 1011.5
20260905015152 17 11 0.0 4.8 0.00 0.00 0.00 89 1011.6
20260905015115 17 11 0.0 4.8 0.00 0.00 0.00 89 1011.6
20260905014943 17 11 0.0 4.8 0.00 0.00 0.00 89 1011.5
20260905014840 17 11 0.0 4.8 0.00 0.00 0.00 89 1011.6
20260905014723 17 11 0.0 4.8 0.00 0.00 0.00 89 1011.6
20260905014646 17 11 0.0 4.8 0.00 0.00 0.00 89 1011.6
20260905014515 17 11 1.6 4.8 0.00 0.00 0.00 89 1011.7
20260905014432 17 11 1.6 4.8 0.00 0.00 0.00 90 1011.7
20260905014246 17 93 0.0 0.0 0.00 0.00 0.00 90 1011.7
20260905014140 17 93 0.0 0.0 0.00 0.00 0.00 90 1011.7
20260905014024 17 93 0.0 0.0 0.00 0.00 0.00 90 1011.7
20260905013945 17 93 0.0 0.0 0.00 0.00 0.00 90 1011.7
20260905013905 17 93 0.0 0.0 0.00 0.00 0.00 90 1011.7
20260905013811 17 93 0.0 0.0 0.00 0.00 0.00 90 1011.7
20260905013732 17 93 0.0 0.0 0.00 0.00 0.00 90 1011.7
20260905013545 17 93 0.0 0.0 0.00 0.00 0.00 90 1011.7
20260905013437 17 93 0.0 0.0 0.00 0.00 0.00 90 1011.7
20260905013402 17 93 0.0 0.0 0.00 0.00 0.00 90 1011.7
20260905013306 17 93 0.0 0.0 0.00 0.00 0.00 90 1011.7
20260905013228 17 93 0.0 0.0 0.00 0.00 0.00 90 1011.7
20260905013032 17 93 0.0 0.0 0.00 0.00 0.00 90 1011.7
20260905012932 17 93 0.0 0.0 0.00 0.00 0.00 89 1011.7
20260905012836 17 93 0.0 0.0 0.00 0.00 0.00 89 1011.7
20260905012737 17 93 0.0 0.0 0.00 0.00 0.00 89 1011.7
20260905012606 17 93 0.0 0.0 0.00 0.00 0.00 89 1011.6
20260905012532 17 93 0.0 0.0 0.00 0.00 0.00 89 1011.6
20260905012341 17 93 0.0 0.0 0.00 0.00 0.00 89 1011.6
20260905012240 17 93 0.0 0.0 0.00 0.00 0.00 89 1011.6
20260905012126 17 93 0.0 0.0 0.00 0.00 0.00 89 1011.6
20260905012046 17 93 0.0 0.0 0.00 0.00 0.00 89 1011.6
20260905011918 17 93 0.0 0.0 0.00 0.00 0.00 88 1011.6
20260905011833 17 93 0.0 0.0 0.00 0.00 0.00 88 1011.6
20260905011701 17 93 0.0 0.0 0.00 0.00 0.00 88 1011.5
20260905011533 17 93 0.0 0.0 0.00 0.00 0.00 88 1011.5
20260905011453 17 93 0.0 0.0 0.00 0.00 0.00 88 1011.5
20260905011415 17 93 0.0 0.0 0.00 0.00 0.00 88 1011.5
20260905011237 18 93 0.0 0.0 0.00 0.00 0.00 88 1011.5
20260905011142 17 93 0.0 0.0 0.00 0.00 0.00 88 1011.6
20260905011027 17 93 0.0 0.0 0.00 0.00 0.00 88 1011.6
20260905010948 17 93 0.0 0.0 0.00 0.00 0.00 88 1011.6
20260905010819 18 93 0.0 0.0 0.00 0.00 0.00 88 1011.6
20260905010735 18 93 0.0 0.0 0.00 0.00 0.00 88 1011.6
20260905010513 18 93 0.0 0.0 0.00 0.00 0.00 88 1011.6
20260905010435 18 93 0.0 0.0 0.00 0.00 0.00 88 1011.6
20260905010240 18 93 0.0 0.0 0.00 0.00 0.00 87 1011.6
20260905010200 18 93 0.0 0.0 0.00 0.00 0.00 87 1011.6
20260905010028 18 93 0.0 0.0 0.00 0.00 0.00 87 1011.6
20260905005858 18 93 0.0 0.0 0.00 0.00 0.00 87 1011.6
20260905005814 18 93 0.0 0.0 0.00 0.00 0.00 87 1011.6
20260905005623 18 93 0.0 0.0 0.00 0.00 0.00 87 1011.6
20260905005541 18 93 0.0 0.0 0.00 0.00 0.00 87 1011.6
20260905005409 18 93 0.0 0.0 0.00 0.00 0.00 87 1011.6
20260905005332 18 93 0.0 0.0 0.00 0.00 0.00 86 1011.6
20260905005135 18 93 0.0 0.0 0.00 0.00 0.00 86 1011.6
20260905005038 18 93 0.0 0.0 0.00 0.00 0.00 86 1011.7
20260905004941 18 93 0.0 0.0 0.00 0.00 0.00 87 1011.7
20260905004846 18 93 0.0 0.0 0.00 0.00 0.00 87 1011.7
20260905004717 18 93 0.0 0.0 0.00 0.00 0.00 86 1011.6
20260905004633 18 93 0.0 0.0 0.00 0.00 0.00 86 1011.6
20260905004504 18 93 0.0 0.0 0.00 0.00 0.00 86 1011.6
20260905004426 18 93 0.0 0.0 0.00 0.00 0.00 86 1011.6
20260905004308 18 93 0.0 0.0 0.00 0.00 0.00 86 1011.6
20260905004226 18 93 0.0 0.0 0.00 0.00 0.00 86 1011.6
20260905004028 18 93 0.0 0.0 0.00 0.00 0.00 86 1011.6
20260905003929 18 93 0.0 0.0 0.00 0.00 0.00 86 1011.6
20260905003833 18 93 0.0 0.0 0.00 0.00 0.00 86 1011.6
20260905003738 18 93 0.0 0.0 0.00 0.00 0.00 85 1011.6
20260905003659 18 93 0.0 0.0 0.00 0.00 0.00 85 1011.6
20260905003603 18 93 0.0 0.0 0.00 0.00 0.00 85 1011.5
20260905003524 18 93 0.0 0.0 0.00 0.00 0.00 85 1011.5
20260905003327 18 93 0.0 0.0 0.00 0.00 0.00 85 1011.5
20260905003228 18 93 0.0 0.0 0.00 0.00 0.00 85 1011.5
20260905003131 18 93 0.0 0.0 0.00 0.00 0.00 85 1011.4
20260905003053 18 93 0.0 0.0 0.00 0.00 0.00 85 1011.4
20260905003015 18 93 0.0 0.0 0.00 0.00 0.00 85 1011.4
20260905002823 18 93 0.0 0.0 0.00 0.00 0.00 85 1011.4
20260905002737 18 93 0.0 0.0 0.00 0.00 0.00 85 1011.4
20260905002527 18 93 0.0 0.0 0.00 0.00 0.00 85 1011.4
20260905002441 18 93 0.0 0.0 0.00 0.00 0.00 85 1011.4
20260905002229 18 93 0.0 0.0 0.00 0.00 0.00 85 1011.3
20260905002145 18 93 0.0 0.0 0.00 0.00 0.00 84 1011.3
20260905001953 18 93 0.0 0.0 0.00 0.00 0.00 84 1011.3
20260905001853 18 93 0.0 0.0 0.00 0.00 0.00 84 1011.3
20260905001737 18 93 0.0 0.0 0.00 0.00 0.00 84 1011.3
20260905001659 18 93 0.0 0.0 0.00 0.00 0.00 84 1011.3
20260905001513 18 93 0.0 0.0 0.00 0.00 0.00 84 1011.4
20260905001429 18 93 0.0 0.0 0.00 0.00 0.00 84 1011.4
20260905001259 18 93 0.0 0.0 0.00 0.00 0.00 84 1011.3
20260905001222 18 93 0.0 0.0 0.00 0.00 0.00 84 1011.3
20260905001136 18 93 0.0 0.0 0.00 0.00 0.00 84 1011.3
20260905001008 18 93 0.0 0.0 0.00 0.00 0.00 83 1011.2
20260905000908 18 93 0.0 0.0 0.00 0.00 0.00 83 1011.3
20260905000752 18 93 0.0 0.0 0.00 0.00 0.00 83 1011.2
20260905000714 18 93 0.0 0.0 0.00 0.00 0.00 83 1011.2
20260905000427 18 93 0.0 0.0 0.00 0.00 0.00 83 1011.2
20260905000328 19 93 0.0 0.0 0.00 0.00 0.00 82 1011.2
20260905000255 19 93 0.0 0.0 0.00 0.00 0.00 82 1011.2
20260905000218 19 93 0.0 0.0 0.00 0.00 0.00 82 1011.1
20260905000139 19 93 0.0 0.0 0.00 0.00 0.00 82 1011.1
20260905000008 19 93 0.0 0.0 0.00 0.00 0.00 82 1011.1
20260904235923 19 93 0.0 0.0 0.00 0.00 0.00 82 1011.1
20260904235732 19 93 0.0 0.0 0.00 0.00 0.00 82 1011.1
20260904235627 19 93 0.0 0.0 0.00 0.00 0.00 81 1011.0
20260904235548 19 93 0.0 0.0 0.00 0.00 0.00 81 1011.0
20260904235452 19 93 0.0 0.0 0.00 0.00 0.00 81 1011.0
20260904235352 19 93 0.0 0.0 0.00 0.00 0.00 81 1011.0
20260904235315 19 93 0.0 0.0 0.00 0.00 0.00 81 1011.0
20260904235202 19 93 0.0 3.2 0.00 0.00 0.00 81 1011.0
20260904235122 19 93 0.0 3.2 0.00 0.00 0.00 81 1011.0
20260904234952 19 93 0.0 3.2 0.00 0.00 0.00 81 1011.0
20260904234916 19 93 0.0 3.2 0.00 0.00 0.00 81 1011.0
20260904234726 19 93 0.0 3.2 0.00 0.00 0.00 80 1010.9
20260904234643 19 93 0.0 3.2 0.00 0.00 0.00 80 1010.9
20260904234431 19 93 0.0 3.2 0.00 0.00 0.00 80 1010.9
20260904234345 19 93 0.0 3.2 0.00 0.00 0.00 80 1010.9
20260904234216 20 36 0.0 3.2 0.00 0.00 0.00 81 1010.9
20260904234137 20 36 1.6 3.2 0.00 0.00 0.00 81 1010.9
20260904234009 20 36 0.0 3.2 0.00 0.00 0.00 80 1010.9
20260904233928 20 36 0.0 1.6 0.00 0.00 0.00 80 1010.9
20260904233759 20 36 1.6 1.6 0.00 0.00 0.00 80 1010.9
20260904233720 20 36 0.0 1.6 0.00 0.00 0.00 81 1010.9
20260904233523 20 36 0.0 0.0 0.00 0.00 0.00 81 1010.9
20260904233446 20 36 0.0 0.0 0.00 0.00 0.00 80 1010.9
20260904233350 20 36 0.0 0.0 0.00 0.00 0.00 80 1010.9
20260904233312 20 36 0.0 1.6 0.00 0.00 0.00 79 1010.9
20260904233129 20 36 0.0 1.6 0.00 0.00 0.00 79 1010.8
20260904233022 20 36 0.0 1.6 0.00 0.00 0.00 79 1010.8
20260904232852 20 36 0.0 1.6 0.00 0.00 0.00 79 1010.8
20260904232815 20 36 0.0 1.6 0.00 0.00 0.00 79 1010.8
20260904232623 20 36 0.0 3.2 0.00 0.00 0.00 79 1010.8
20260904232525 20 36 0.0 3.2 0.00 0.00 0.00 79 1010.9
20260904232429 20 36 0.0 3.2 0.00 0.00 0.00 78 1010.9
20260904232330 20 36 0.0 3.2 0.00 0.00 0.00 78 1010.9
20260904232132 20 36 0.0 3.2 0.00 0.00 0.00 79 1011.0
20260904232035 20 36 0.0 3.2 0.00 0.00 0.00 78 1011.0
20260904231950 20 36 0.0 3.2 0.00 0.00 0.00 78 1010.9
20260904231912 20 36 0.0 3.2 0.00 0.00 0.00 78 1010.9
20260904231751 20 36 0.0 3.2 0.00 0.00 0.00 78 1010.9
20260904231705 20 30 0.0 3.2 0.00 0.00 0.00 79 1010.9
20260904231540 20 355 0.0 0.0 0.00 0.00 0.00 78 1010.9
20260904231440 20 355 0.0 0.0 0.00 0.00 0.00 78 1010.9
20260904231223 20 355 0.0 0.0 0.00 0.00 0.00 77 1011.0
20260904231147 20 355 0.0 0.0 0.00 0.00 0.00 78 1011.0
20260904231031 20 355 0.0 1.6 0.00 0.00 0.00 77 1011.0
20260904230951 20 355 0.0 1.6 0.00 0.00 0.00 78 1011.0
20260904230730 21 355 0.0 1.6 0.00 0.00 0.00 76 1011.1
20260904230653 21 355 0.0 1.6 0.00 0.00 0.00 76 1011.1
20260904230557 21 355 0.0 1.6 0.00 0.00 0.00 76 1011.1
20260904230522 21 355 0.0 1.6 0.00 0.00 0.00 76 1011.1
20260904230352 21 355 0.0 3.2 0.00 0.00 0.00 75 1011.1
20260904230309 21 355 0.0 3.2 0.00 0.00 0.00 74 1011.1
20260904230047 21 355 0.0 4.8 0.00 0.00 0.00 73 1011.1
20260904225947 21 355 0.0 6.4 0.00 0.00 0.00 74 1011.0
20260904225832 21 355 0.0 6.4 0.00 0.00 0.00 73 1011.1
20260904225753 21 355 0.0 6.4 0.00 0.00 0.00 74 1011.1
20260904225625 21 355 1.6 6.4 0.00 0.00 0.00 74 1011.1
20260904225528 21 355 1.6 6.4 0.00 0.00 0.00 74 1011.1
20260904225339 21 355 1.6 6.4 0.00 0.00 0.00 74 1011.1
20260904225236 21 355 3.2 6.4 0.00 0.00 0.00 73 1011.2
20260904225159 21 355 3.2 6.4 0.00 0.00 0.00 73 1011.1
20260904225044 21 9 3.2 6.4 0.00 0.00 0.00 73 1011.1
20260904224944 21 9 3.2 6.4 0.00 0.00 0.00 73 1011.2
20260904224849 21 348 3.2 6.4 0.00 0.00 0.00 72 1011.1
20260904224810 21 61 1.6 4.8 0.00 0.00 0.00 73 1011.1
20260904224619 21 329 0.0 4.8 0.00 0.00 0.00 75 1011.2
20260904224533 21 329 1.6 4.8 0.00 0.00 0.00 73 1011.2
20260904224342 21 329 3.2 4.8 0.00 0.00 0.00 73 1011.1
20260904224236 21 329 1.6 4.8 0.00 0.00 0.00 74 1011.1
20260904224124 21 341 0.0 0.0 0.00 0.00 0.00 75 1011.1
20260904224045 21 341 0.0 0.0 0.00 0.00 0.00 73 1011.1
20260904223915 21 341 0.0 0.0 0.00 0.00 0.00 73 1011.0
20260904223831 21 341 0.0 0.0 0.00 0.00 0.00 73 1011.0
20260904223642 21 341 0.0 3.2 0.00 0.00 0.00 74 1011.0
20260904223605 21 341 0.0 3.2 0.00 0.00 0.00 74 1011.0
20260904223427 21 341 0.0 3.2 0.00 0.00 0.00 74 1011.0
20260904223351 21 341 0.0 3.2 0.00 0.00 0.00 73 1011.0
20260904223234 21 341 0.0 4.8 0.00 0.00 0.00 72 1011.0
20260904223136 21 341 0.0 8.0 0.00 0.00 0.00 73 1011.0
20260904222923 21 341 1.6 9.7 0.00 0.00 0.00 70 1010.9
20260904222824 21 341 1.6 9.7 0.00 0.00 0.00 71 1011.0
20260904222728 21 341 1.6 9.7 0.00 0.00 0.00 70 1010.9
20260904222649 21 341 1.6 9.7 0.00 0.00 0.00 70 1010.9
20260904222521 21 341 3.2 9.7 0.00 0.00 0.00 69 1010.9
20260904222435 21 341 3.2 9.7 0.00 0.00 0.00 70 1010.9
20260904222317 21 355 4.8 9.7 0.00 0.00 0.00 69 1010.9
20260904222237 21 316 4.8 9.7 0.00 0.00 0.00 70 1010.9
20260904222048 21 5 4.8 9.7 0.00 0.00 0.00 70 1011.0
20260904221926 21 336 4.8 14.5 0.00 0.00 0.00 69 1011.0
20260904221830 21 327 3.2 14.5 0.00 0.00 0.00 72 1011.0
20260904221753 21 304 3.2 14.5 0.00 0.00 0.00 70 1011.0
20260904221715 21 302 1.6 14.5 0.00 0.00 0.00 71 1011.0
20260904221620 21 342 3.2 14.5 0.00 0.00 0.00 71 1011.0
20260904221521 21 334 4.8 14.5 0.00 0.00 0.00 72 1011.0
20260904221325 21 331 6.4 14.5 0.00 0.00 0.00 70 1011.0
20260904221227 21 29 6.4 14.5 0.00 0.00 0.00 72 1011.0
20260904221123 22 339 4.8 12.9 0.00 0.00 0.00 71 1011.0
20260904221044 22 333 4.8 12.9 0.00 0.00 0.00 71 1011.0
20260904221012 22 11 4.8 12.9 0.00 0.00 0.00 72 1011.0
20260904220916 22 337 4.8 12.9 0.00 0.00 0.00 71 1011.0
20260904220837 22 318 6.4 12.9 0.00 0.00 0.00 71 1011.0
20260904220647 22 336 6.4 12.9 0.00 0.00 0.00 70 1011.0
20260904220604 22 338 6.4 12.9 0.00 0.00 0.00 71 1010.9
20260904220413 22 343 4.8 9.7 0.00 0.00 0.00 71 1010.9